Wetterdaten: Mittwoch, 17.01.2018
Datum Zeit Temp. A. Pool Temp. Feuchte A. Luftdruck Regen Wind Richtung Richtung Sonnenschein ET UV Solar Taupunkt Windchill Windben Empfang
17.01.2018 00:00 2,6 C 3,3 C 91 % 1000,0 hPa 0,2 l/m 19,3 km/h (3 Bft) W-SW 247 0 min 0,025 mm 0,0 UV-I 0 W/m 1,3 C -6,0 C 27,4 km/h (4 Bft) 97,37 %
17.01.2018 00:05 2,4 C 3,3 C 92 % 1000,2 hPa 0,2 l/m 12,9 km/h (3 Bft) W-SW 247 0 min 0,000 mm 0,0 UV-I 0 W/m 1,2 C -2,8 C 24,1 km/h (4 Bft) 95,61 %
17.01.2018 00:10 2,3 C 3,3 C 93 % 1000,5 hPa 0,0 l/m 16,1 km/h (3 Bft) W 270 0 min 0,000 mm 0,0 UV-I 0 W/m 1,3 C -4,8 C 22,5 km/h (4 Bft) 98,25 %
17.01.2018 00:15 2,1 C 3,3 C 93 % 1000,6 hPa 0,4 l/m 14,5 km/h (3 Bft) W-SW 247 0 min 0,000 mm 0,0 UV-I 0 W/m 1,1 C -4,2 C 20,9 km/h (4 Bft) 100,00 %
17.01.2018 00:20 1,9 C 3,3 C 94 % 1000,5 hPa 0,0 l/m 14,5 km/h (3 Bft) W-SW 247 0 min 0,000 mm 0,0 UV-I 0 W/m 1,0 C -4,4 C 32,2 km/h (5 Bft) 100,00 %
17.01.2018 00:25 1,9 C 3,3 C 94 % 1000,3 hPa 0,2 l/m 16,1 km/h (3 Bft) W-SW 247 0 min 0,000 mm 0,0 UV-I 0 W/m 1,0 C -5,3 C 32,2 km/h (5 Bft) 100,00 %
17.01.2018 00:30 1,8 C 3,3 C 94 % 999,9 hPa 0,2 l/m 9,7 km/h (2 Bft) W-SW 247 0 min 0,000 mm 0,0 UV-I 0 W/m 0,9 C -1,2 C 20,9 km/h (4 Bft) 100,00 %
17.01.2018 00:35 1,6 C 3,3 C 94 % 999,8 hPa 0,2 l/m 11,3 km/h (2 Bft) SW 225 0 min 0,000 mm 0,0 UV-I 0 W/m 0,7 C -2,7 C 20,9 km/h (4 Bft) 100,00 %
17.01.2018 00:40 1,4 C 3,3 C 94 % 999,6 hPa 0,2 l/m 11,3 km/h (2 Bft) SW 225 0 min 0,000 mm 0,0 UV-I 0 W/m 0,5 C -2,9 C 24,1 km/h (4 Bft) 100,00 %
17.01.2018 00:45 1,3 C 3,3 C 95 % 999,5 hPa 0,0 l/m 9,7 km/h (2 Bft) S-SW 202 0 min 0,000 mm 0,0 UV-I 0 W/m 0,6 C -1,8 C 14,5 km/h (3 Bft) 98,25 %
17.01.2018 00:50 1,2 C 3,3 C 95 % 999,3 hPa 0,0 l/m 9,7 km/h (2 Bft) S-SW 202 0 min 0,000 mm 0,0 UV-I 0 W/m 0,5 C -1,9 C 14,5 km/h (3 Bft) 97,37 %
17.01.2018 00:55 1,2 C 3,3 C 95 % 999,5 hPa 0,2 l/m 11,3 km/h (2 Bft) S-SW 202 0 min 0,000 mm 0,0 UV-I 0 W/m 0,5 C -3,1 C 19,3 km/h (3 Bft) 98,25 %
17.01.2018 01:00 1,1 C 3,3 C 95 % 999,5 hPa 0,0 l/m 11,3 km/h (2 Bft) S-SW 202 0 min 0,000 mm 0,0 UV-I 0 W/m 0,4 C -3,2 C 14,5 km/h (3 Bft) 96,49 %
17.01.2018 01:05 1,0 C 3,3 C 95 % 999,4 hPa 0,0 l/m 11,3 km/h (2 Bft) S-SW 202 0 min 0,000 mm 0,0 UV-I 0 W/m 0,3 C -3,3 C 19,3 km/h (3 Bft) 96,49 %
17.01.2018 01:10 0,9 C 3,3 C 96 % 999,3 hPa 0,0 l/m 8,0 km/h (2 Bft) S-SW 202 0 min 0,000 mm 0,0 UV-I 0 W/m 0,3 C -0,7 C 14,5 km/h (3 Bft) 96,49 %
17.01.2018 01:15 0,9 C 3,3 C 96 % 999,3 hPa 0,0 l/m 9,7 km/h (2 Bft) S-SW 202 0 min 0,000 mm 0,0 UV-I 0 W/m 0,3 C -2,2 C 20,9 km/h (4 Bft) 95,61 %
17.01.2018 01:20 0,9 C 3,3 C 96 % 999,3 hPa 0,0 l/m 9,7 km/h (2 Bft) S-SW 202 0 min 0,000 mm 0,0 UV-I 0 W/m 0,3 C -2,2 C 19,3 km/h (3 Bft) 95,61 %
17.01.2018 01:25 0,9 C 3,3 C 96 % 999,4 hPa 0,0 l/m 12,9 km/h (3 Bft) S-SW 202 0 min 0,000 mm 0,0 UV-I 0 W/m 0,3 C -4,6 C 20,9 km/h (4 Bft) 95,61 %
17.01.2018 01:30 0,9 C 3,3 C 96 % 999,2 hPa 0,0 l/m 11,3 km/h (2 Bft) S-SW 202 0 min 0,000 mm 0,0 UV-I 0 W/m 0,3 C -3,5 C 17,7 km/h (3 Bft) 97,37 %
17.01.2018 01:35 0,8 C 3,3 C 96 % 999,1 hPa 0,0 l/m 9,7 km/h (2 Bft) S-SW 202 0 min 0,000 mm 0,0 UV-I 0 W/m 0,2 C -2,3 C 22,5 km/h (4 Bft) 98,25 %
17.01.2018 01:40 0,8 C 3,3 C 96 % 999,1 hPa 0,2 l/m 9,7 km/h (2 Bft) S-SW 202 0 min 0,000 mm 0,0 UV-I 0 W/m 0,2 C -2,3 C 17,7 km/h (3 Bft) 99,12 %
17.01.2018 01:45 0,7 C 3,3 C 96 % 999,2 hPa 0,0 l/m 11,3 km/h (2 Bft) S-SW 202 0 min 0,000 mm 0,0 UV-I 0 W/m 0,1 C -3,7 C 19,3 km/h (3 Bft) 99,12 %
17.01.2018 01:50 0,6 C 3,3 C 96 % 999,2 hPa 0,0 l/m 11,3 km/h (2 Bft) S-SW 202 0 min 0,000 mm 0,0 UV-I 0 W/m 0,0 C -3,8 C 19,3 km/h (3 Bft) 100,00 %
17.01.2018 01:55 0,6 C 3,3 C 96 % 999,2 hPa 0,0 l/m 11,3 km/h (2 Bft) S-SW 202 0 min 0,000 mm 0,0 UV-I 0 W/m 0,0 C -3,8 C 17,7 km/h (3 Bft) 99,12 %
17.01.2018 02:00 0,6 C 3,3 C 96 % 999,1 hPa 0,0 l/m 9,7 km/h (2 Bft) S-SW 202 0 min 0,000 mm 0,0 UV-I 0 W/m 0,0 C -2,5 C 14,5 km/h (3 Bft) 100,00 %
17.01.2018 02:05 0,6 C 3,3 C 96 % 999,1 hPa 0,0 l/m 11,3 km/h (2 Bft) S-SW 202 0 min 0,000 mm 0,0 UV-I 0 W/m 0,0 C -3,8 C 19,3 km/h (3 Bft) 99,12 %
17.01.2018 02:10 0,6 C 3,3 C 97 % 999,1 hPa 0,0 l/m 9,7 km/h (2 Bft) S-SW 202 0 min 0,000 mm 0,0 UV-I 0 W/m 0,2 C -2,5 C 16,1 km/h (3 Bft) 100,00 %
17.01.2018 02:15 0,8 C 3,3 C 97 % 998,9 hPa 0,2 l/m 12,9 km/h (3 Bft) S-SW 202 0 min 0,000 mm 0,0 UV-I 0 W/m 0,4 C -4,7 C 25,7 km/h (4 Bft) 100,00 %
17.01.2018 02:20 0,9 C 3,3 C 96 % 998,9 hPa 0,2 l/m 9,7 km/h (2 Bft) SW 225 0 min 0,000 mm 0,0 UV-I 0 W/m 0,3 C -2,2 C 19,3 km/h (3 Bft) 99,12 %
17.01.2018 02:25 0,9 C 3,3 C 96 % 999,1 hPa 0,0 l/m 9,7 km/h (2 Bft) SW 225 0 min 0,000 mm 0,0 UV-I 0 W/m 0,3 C -2,2 C 17,7 km/h (3 Bft) 100,00 %
17.01.2018 02:30 0,9 C 3,3 C 96 % 998,9 hPa 0,2 l/m 8,0 km/h (2 Bft) SW 225 0 min 0,000 mm 0,0 UV-I 0 W/m 0,3 C -0,7 C 12,9 km/h (3 Bft) 98,25 %
17.01.2018 02:35 0,9 C 3,3 C 96 % 998,8 hPa 0,2 l/m 9,7 km/h (2 Bft) SW 225 0 min 0,000 mm 0,0 UV-I 0 W/m 0,3 C -2,2 C 19,3 km/h (3 Bft) 100,00 %
17.01.2018 02:40 0,9 C 3,3 C 96 % 998,6 hPa 0,0 l/m 9,7 km/h (2 Bft) SW 225 0 min 0,000 mm 0,0 UV-I 0 W/m 0,3 C -2,2 C 16,1 km/h (3 Bft) 97,37 %
17.01.2018 02:45 1,1 C 3,3 C 96 % 998,6 hPa 0,0 l/m 11,3 km/h (2 Bft) SW 225 0 min 0,000 mm 0,0 UV-I 0 W/m 0,5 C -3,2 C 20,9 km/h (4 Bft) 98,25 %
17.01.2018 02:50 1,3 C 3,3 C 96 % 998,4 hPa 0,2 l/m 12,9 km/h (3 Bft) SW 225 0 min 0,000 mm 0,0 UV-I 0 W/m 0,7 C -4,1 C 20,9 km/h (4 Bft) 97,37 %
17.01.2018 02:55 1,4 C 3,3 C 96 % 998,3 hPa 0,2 l/m 11,3 km/h (2 Bft) SW 225 0 min 0,000 mm 0,0 UV-I 0 W/m 0,8 C -2,9 C 24,1 km/h (4 Bft) 95,61 %
17.01.2018 03:00 1,3 C 3,3 C 95 % 998,3 hPa 0,2 l/m 11,3 km/h (2 Bft) SW 225 0 min 0,000 mm 0,0 UV-I 0 W/m 0,6 C -3,0 C 24,1 km/h (4 Bft) 95,61 %
17.01.2018 03:05 1,2 C 3,3 C 95 % 998,2 hPa 0,2 l/m 9,7 km/h (2 Bft) S-SW 202 0 min 0,000 mm 0,0 UV-I 0 W/m 0,5 C -1,9 C 19,3 km/h (3 Bft) 96,49 %
17.01.2018 03:10 1,1 C 3,3 C 95 % 998,3 hPa 0,0 l/m 8,0 km/h (2 Bft) S-SW 202 0 min 0,000 mm 0,0 UV-I 0 W/m 0,4 C -0,5 C 14,5 km/h (3 Bft) 97,37 %
17.01.2018 03:15 0,9 C 3,3 C 96 % 998,2 hPa 0,2 l/m 6,4 km/h (2 Bft) S-SO 157 0 min 0,000 mm 0,0 UV-I 0 W/m 0,3 C 0,9 C 16,1 km/h (3 Bft) 98,25 %
17.01.2018 03:20 0,9 C 3,3 C 96 % 998,0 hPa 0,0 l/m 4,8 km/h (1 Bft) S-SO 157 0 min 0,000 mm 0,0 UV-I 0 W/m 0,3 C 0,9 C 11,3 km/h (2 Bft) 98,25 %
17.01.2018 03:25 0,9 C 3,3 C 96 % 997,9 hPa 0,2 l/m 3,2 km/h (1 Bft) S 180 0 min 0,000 mm 0,0 UV-I 0 W/m 0,3 C 0,9 C 8,0 km/h (2 Bft) 97,37 %
17.01.2018 03:30 1,0 C 3,3 C 96 % 997,8 hPa 0,0 l/m 3,2 km/h (1 Bft) S-SO 157 0 min 0,000 mm 0,0 UV-I 0 W/m 0,4 C 1,0 C 9,7 km/h (2 Bft) 97,37 %
17.01.2018 03:35 1,1 C 3,3 C 96 % 997,9 hPa 0,2 l/m 3,2 km/h (1 Bft) S-SO 157 0 min 0,000 mm 0,0 UV-I 0 W/m 0,5 C 1,1 C 9,7 km/h (2 Bft) 99,12 %
17.01.2018 03:40 1,1 C 3,3 C 96 % 997,7 hPa 0,0 l/m 4,8 km/h (1 Bft) S-SO 157 0 min 0,000 mm 0,0 UV-I 0 W/m 0,5 C 1,1 C 9,7 km/h (2 Bft) 99,12 %
17.01.2018 03:45 1,1 C 3,3 C 96 % 997,5 hPa 0,0 l/m 3,2 km/h (1 Bft) S-SO 157 0 min 0,000 mm 0,0 UV-I 0 W/m 0,5 C 1,1 C 11,3 km/h (2 Bft) 98,25 %
17.01.2018 03:50 1,1 C 3,3 C 96 % 997,7 hPa 0,2 l/m 3,2 km/h (1 Bft) S 180 0 min 0,000 mm 0,0 UV-I 0 W/m 0,5 C 1,1 C 6,4 km/h (2 Bft) 100,00 %
17.01.2018 03:55 1,0 C 3,3 C 96 % 997,7 hPa 0,0 l/m 3,2 km/h (1 Bft) S 180 0 min 0,000 mm 0,0 UV-I 0 W/m 0,4 C 1,0 C 4,8 km/h (1 Bft) 99,12 %
17.01.2018 04:00 1,0 C 3,3 C 96 % 997,8 hPa 0,0 l/m 3,2 km/h (1 Bft) S 180 0 min 0,000 mm 0,0 UV-I 0 W/m 0,4 C 1,0 C 6,4 km/h (2 Bft) 100,00 %
17.01.2018 04:05 1,1 C 3,3 C 96 % 997,8 hPa 0,2 l/m 4,8 km/h (1 Bft) S 180 0 min 0,000 mm 0,0 UV-I 0 W/m 0,5 C 1,1 C 9,7 km/h (2 Bft) 65,79 %
17.01.2018 04:10 1,1 C 3,3 C 96 % 997,8 hPa 0,0 l/m 6,4 km/h (2 Bft) S-SW 202 0 min 0,000 mm 0,0 UV-I 0 W/m 0,5 C 1,1 C 9,7 km/h (2 Bft) 98,25 %
17.01.2018 04:15 1,1 C 3,3 C 96 % 997,8 hPa 0,2 l/m 6,4 km/h (2 Bft) S-SW 202 0 min 0,000 mm 0,0 UV-I 0 W/m 0,5 C 1,1 C 11,3 km/h (2 Bft) 97,37 %
17.01.2018 04:20 1,2 C 3,3 C 96 % 997,8 hPa 0,0 l/m 6,4 km/h (2 Bft) SW 225 0 min 0,000 mm 0,0 UV-I 0 W/m 0,6 C 1,2 C 11,3 km/h (2 Bft) 98,25 %
17.01.2018 04:25 1,2 C 3,3 C 96 % 997,8 hPa 0,2 l/m 6,4 km/h (2 Bft) S-SW 202 0 min 0,000 mm 0,0 UV-I 0 W/m 0,6 C 1,2 C 9,7 km/h (2 Bft) 98,25 %
17.01.2018 04:30 1,3 C 3,3 C 96 % 997,8 hPa 0,2 l/m 6,4 km/h (2 Bft) S-SW 202 0 min 0,000 mm 0,0 UV-I 0 W/m 0,7 C 1,3 C 12,9 km/h (3 Bft) 100,00 %
17.01.2018 04:34 1,4 C 3,3 C 96 % 997,8 hPa 0,0 l/m 6,4 km/h (2 Bft) S-SW 202 0 min 0,000 mm 0,0 UV-I 0 W/m 0,8 C 1,4 C 9,7 km/h (2 Bft) 98,35 %
17.01.2018 04:36 1,4 C 3,3 C 96 % 997,8 hPa 0,0 l/m 5,5 km/h (1 Bft) SW 230 0 min 0,000 mm 0,0 UV-I 0 W/m 0,8 C 1,4 C 11,3 km/h (2 Bft) 100,00 %
17.01.2018 04:38 1,4 C 3,3 C 96 % 997,7 hPa 0,0 l/m 10,9 km/h (2 Bft) SW 221 0 min 0,000 mm 0,0 UV-I 0 W/m 0,8 C -2,6 C 19,3 km/h (3 Bft) 96,00 %
17.01.2018 04:40 1,5 C 3,3 C 96 % 997,6 hPa 0,0 l/m 11,4 km/h (2 Bft) S-SW 213 0 min 0,000 mm 0,0 UV-I 0 W/m 0,9 C -2,9 C 17,7 km/h (3 Bft) 97,56 %
17.01.2018 04:42 1,6 C 3,3 C 96 % 997,6 hPa 0,0 l/m 12,1 km/h (2 Bft) SW 223 0 min 0,000 mm 0,0 UV-I 0 W/m 1,0 C -3,2 C 17,7 km/h (3 Bft) 98,11 %
17.01.2018 04:44 1,7 C 3,3 C 96 % 997,4 hPa 0,0 l/m 12,5 km/h (3 Bft) S-SW 209 0 min 0,000 mm 0,0 UV-I 0 W/m 1,1 C -3,4 C 17,7 km/h (3 Bft) 97,87 %
17.01.2018 04:46 1,8 C 3,3 C 96 % 997,3 hPa 0,0 l/m 14,3 km/h (3 Bft) S-SW 207 0 min 0,000 mm 0,0 UV-I 0 W/m 1,2 C -4,4 C 20,9 km/h (4 Bft) 91,49 %
17.01.2018 04:48 1,8 C 3,3 C 96 % 997,3 hPa 0,0 l/m 11,0 km/h (2 Bft) SW 229 0 min 0,000 mm 0,0 UV-I 0 W/m 1,2 C -2,2 C 17,7 km/h (3 Bft) 97,37 %
17.01.2018 04:50 1,8 C 3,3 C 95 % 997,3 hPa 0,0 l/m 12,5 km/h (3 Bft) S-SW 203 0 min 0,000 mm 0,0 UV-I 0 W/m 1,1 C -3,3 C 19,3 km/h (3 Bft) 92,00 %
17.01.2018 04:52 1,8 C 3,3 C 95 % 997,3 hPa 0,0 l/m 13,1 km/h (3 Bft) SW 220 0 min 0,000 mm 0,0 UV-I 0 W/m 1,1 C -3,7 C 22,5 km/h (4 Bft) 93,62 %
17.01.2018 04:54 1,8 C 3,3 C 95 % 997,5 hPa 0,2 l/m 14,0 km/h (3 Bft) W-SW 247 0 min 0,000 mm 0,0 UV-I 0 W/m 1,1 C -4,2 C 20,9 km/h (4 Bft) 96,23 %
17.01.2018 04:56 1,8 C 3,3 C 95 % 997,5 hPa 0,0 l/m 11,4 km/h (2 Bft) SW 222 0 min 0,000 mm 0,0 UV-I 0 W/m 1,1 C -2,5 C 19,3 km/h (3 Bft) 97,44 %
17.01.2018 04:58 1,8 C 3,3 C 95 % 997,6 hPa 0,0 l/m 12,0 km/h (2 Bft) SW 220 0 min 0,000 mm 0,0 UV-I 0 W/m 1,1 C -2,9 C 19,3 km/h (3 Bft) 94,00 %
17.01.2018 05:00 1,8 C 3,3 C 95 % 997,6 hPa 0,0 l/m 13,9 km/h (3 Bft) W 259 0 min 0,000 mm 0,0 UV-I 0 W/m 1,1 C -4,2 C 19,3 km/h (3 Bft) 97,87 %
17.01.2018 05:02 1,8 C 3,3 C 95 % 997,4 hPa 0,0 l/m 13,4 km/h (3 Bft) SW 215 0 min 0,000 mm 0,0 UV-I 0 W/m 1,1 C -3,8 C 22,5 km/h (4 Bft) 98,00 %
17.01.2018 05:04 1,8 C 3,3 C 95 % 997,4 hPa 0,0 l/m 11,4 km/h (2 Bft) S-SW 206 0 min 0,000 mm 0,0 UV-I 0 W/m 1,1 C -2,5 C 17,7 km/h (3 Bft) 98,00 %
17.01.2018 05:06 1,8 C 3,3 C 95 % 997,4 hPa 0,0 l/m 10,0 km/h (2 Bft) S-SW 211 0 min 0,000 mm 0,0 UV-I 0 W/m 1,1 C -1,5 C 16,1 km/h (3 Bft) 100,00 %
17.01.2018 05:08 1,7 C 3,3 C 95 % 997,4 hPa 0,0 l/m 8,9 km/h (2 Bft) S-SW 200 0 min 0,000 mm 0,0 UV-I 0 W/m 1,0 C -0,7 C 14,5 km/h (3 Bft) 100,00 %
17.01.2018 05:10 1,7 C 3,3 C 95 % 997,3 hPa 0,2 l/m 12,9 km/h (3 Bft) S-SW 201 0 min 0,000 mm 0,0 UV-I 0 W/m 1,0 C -3,6 C 19,3 km/h (3 Bft) 100,00 %
17.01.2018 05:12 1,7 C 3,3 C 95 % 997,3 hPa 0,0 l/m 11,1 km/h (2 Bft) S-SW 212 0 min 0,000 mm 0,0 UV-I 0 W/m 1,0 C -2,4 C 22,5 km/h (4 Bft) 97,37 %
17.01.2018 05:14 1,7 C 3,3 C 95 % 997,4 hPa 0,0 l/m 13,7 km/h (3 Bft) SW 221 0 min 0,000 mm 0,0 UV-I 0 W/m 1,0 C -4,1 C 22,5 km/h (4 Bft) 98,00 %
17.01.2018 05:16 1,7 C 3,3 C 95 % 997,4 hPa 0,0 l/m 11,3 km/h (2 Bft) SW 229 0 min 0,000 mm 0,0 UV-I 0 W/m 1,0 C -2,6 C 19,3 km/h (3 Bft) 100,00 %
17.01.2018 05:18 1,7 C 3,3 C 95 % 997,4 hPa 0,0 l/m 12,6 km/h (3 Bft) SW 232 0 min 0,000 mm 0,0 UV-I 0 W/m 1,0 C -3,4 C 16,1 km/h (3 Bft) 94,74 %
17.01.2018 05:20 1,7 C 3,3 C 95 % 997,4 hPa 0,0 l/m 12,2 km/h (2 Bft) S-SW 205 0 min 0,000 mm 0,0 UV-I 0 W/m 1,0 C -3,2 C 19,3 km/h (3 Bft) 100,00 %
17.01.2018 05:22 1,6 C 3,3 C 95 % 997,3 hPa 0,0 l/m 14,3 km/h (3 Bft) S-SW 211 0 min 0,000 mm 0,0 UV-I 0 W/m 0,9 C -4,6 C 20,9 km/h (4 Bft) 100,00 %
17.01.2018 05:24 1,6 C 3,3 C 95 % 997,3 hPa 0,0 l/m 13,2 km/h (3 Bft) SW 214 0 min 0,000 mm 0,0 UV-I 0 W/m 0,9 C -4,0 C 19,3 km/h (3 Bft) 98,21 %
17.01.2018 05:26 1,5 C 3,3 C 95 % 997,3 hPa 0,2 l/m 11,7 km/h (2 Bft) S-SW 205 0 min 0,000 mm 0,0 UV-I 0 W/m 0,8 C -3,1 C 17,7 km/h (3 Bft) 100,00 %
17.01.2018 05:28 1,4 C 3,3 C 95 % 997,3 hPa 0,0 l/m 11,3 km/h (2 Bft) S-SW 207 0 min 0,000 mm 0,0 UV-I 0 W/m 0,7 C -2,9 C 20,9 km/h (4 Bft) 97,56 %
17.01.2018 05:30 1,3 C 3,3 C 95 % 997,3 hPa 0,0 l/m 11,3 km/h (2 Bft) S-SW 203 0 min 0,000 mm 0,0 UV-I 0 W/m 0,6 C -3,0 C 20,9 km/h (4 Bft) 100,00 %
17.01.2018 05:32 1,3 C 3,3 C 95 % 997,3 hPa 0,0 l/m 11,6 km/h (2 Bft) S-SW 196 0 min 0,000 mm 0,0 UV-I 0 W/m 0,6 C -3,2 C 17,7 km/h (3 Bft) 100,00 %
17.01.2018 05:34 1,3 C 3,3 C 96 % 997,3 hPa 0,0 l/m 10,8 km/h (2 Bft) SW 234 0 min 0,000 mm 0,0 UV-I 0 W/m 0,7 C -2,6 C 19,3 km/h (3 Bft) 98,11 %
17.01.2018 05:36 1,2 C 3,3 C 96 % 997,3 hPa 0,0 l/m 11,1 km/h (2 Bft) S-SW 199 0 min 0,000 mm 0,0 UV-I 0 W/m 0,6 C -3,0 C 19,3 km/h (3 Bft) 100,00 %
17.01.2018 05:38 1,2 C 3,3 C 96 % 997,2 hPa 0,0 l/m 9,4 km/h (2 Bft) SW 214 0 min 0,000 mm 0,0 UV-I 0 W/m 0,6 C -1,6 C 17,7 km/h (3 Bft) 100,00 %
17.01.2018 05:40 1,2 C 3,3 C 96 % 997,2 hPa 0,0 l/m 9,7 km/h (2 Bft) S 184 0 min 0,000 mm 0,0 UV-I 0 W/m 0,6 C -1,9 C 14,5 km/h (3 Bft) 100,00 %
17.01.2018 05:42 1,2 C 3,3 C 96 % 997,1 hPa 0,0 l/m 9,3 km/h (2 Bft) SW 221 0 min 0,000 mm 0,0 UV-I 0 W/m 0,6 C -1,5 C 14,5 km/h (3 Bft) 100,00 %
17.01.2018 05:44 1,2 C 3,3 C 96 % 997,1 hPa 0,0 l/m 12,2 km/h (2 Bft) S-SW 205 0 min 0,000 mm 0,0 UV-I 0 W/m 0,6 C -3,8 C 19,3 km/h (3 Bft) 100,00 %
17.01.2018 05:46 1,2 C 3,3 C 96 % 997,2 hPa 0,0 l/m 10,3 km/h (2 Bft) SW 223 0 min 0,000 mm 0,0 UV-I 0 W/m 0,6 C -2,4 C 16,1 km/h (3 Bft) 100,00 %
17.01.2018 05:48 1,2 C 3,3 C 96 % 997,1 hPa 0,0 l/m 10,9 km/h (2 Bft) SW 214 0 min 0,000 mm 0,0 UV-I 0 W/m 0,6 C -2,8 C 16,1 km/h (3 Bft) 100,00 %
17.01.2018 05:50 1,2 C 3,3 C 96 % 997,0 hPa 0,2 l/m 10,7 km/h (2 Bft) S 171 0 min 0,000 mm 0,0 UV-I 0 W/m 0,6 C -2,7 C 16,1 km/h (3 Bft) 100,00 %
17.01.2018 05:52 1,2 C 3,3 C 96 % 997,0 hPa 0,0 l/m 9,7 km/h (2 Bft) SW 229 0 min 0,000 mm 0,0 UV-I 0 W/m 0,6 C -1,9 C 16,1 km/h (3 Bft) 100,00 %
17.01.2018 05:54 1,2 C 3,3 C 96 % 997,0 hPa 0,0 l/m 9,4 km/h (2 Bft) SO 143 0 min 0,000 mm 0,0 UV-I 0 W/m 0,6 C -1,6 C 16,1 km/h (3 Bft) 96,43 %
17.01.2018 05:56 1,2 C 3,3 C 96 % 997,1 hPa 0,0 l/m 8,4 km/h (2 Bft) SW 214 0 min 0,000 mm 0,0 UV-I 0 W/m 0,6 C -0,8 C 17,7 km/h (3 Bft) 97,87 %
17.01.2018 05:58 1,2 C 3,3 C 96 % 997,0 hPa 0,0 l/m 10,7 km/h (2 Bft) S-SW 192 0 min 0,000 mm 0,0 UV-I 0 W/m 0,6 C -2,7 C 16,1 km/h (3 Bft) 100,00 %
17.01.2018 06:00 1,3 C 3,3 C 96 % 997,0 hPa 0,0 l/m 7,6 km/h (2 Bft) S-SW 211 0 min 0,000 mm 0,0 UV-I 0 W/m 0,7 C 0,1 C 14,5 km/h (3 Bft) 100,00 %
17.01.2018 06:02 1,3 C 3,3 C 96 % 996,9 hPa 0,0 l/m 11,1 km/h (2 Bft) SW 224 0 min 0,000 mm 0,0 UV-I 0 W/m 0,7 C -2,9 C 17,7 km/h (3 Bft) 98,53 %
17.01.2018 06:04 1,3 C 3,3 C 96 % 996,9 hPa 0,0 l/m 9,2 km/h (2 Bft) S-SW 197 0 min 0,000 mm 0,0 UV-I 0 W/m 0,7 C -1,4 C 14,5 km/h (3 Bft) 100,00 %
17.01.2018 06:06 1,3 C 3,3 C 96 % 997,0 hPa 0,0 l/m 9,5 km/h (2 Bft) S-SW 200 0 min 0,000 mm 0,0 UV-I 0 W/m 0,7 C -1,6 C 12,9 km/h (3 Bft) 100,00 %
17.01.2018 06:08 1,3 C 3,3 C 96 % 997,0 hPa 0,0 l/m 8,8 km/h (2 Bft) S-SW 201 0 min 0,000 mm 0,0 UV-I 0 W/m 0,7 C -1,0 C 14,5 km/h (3 Bft) 100,00 %
17.01.2018 06:10 1,3 C 3,3 C 96 % 997,1 hPa 0,0 l/m 9,7 km/h (2 Bft) S-SW 205 0 min 0,000 mm 0,0 UV-I 0 W/m 0,7 C -1,8 C 12,9 km/h (3 Bft) 100,00 %
17.01.2018 06:12 1,3 C 3,3 C 96 % 997,1 hPa 0,0 l/m 8,9 km/h (2 Bft) S-SW 211 0 min 0,000 mm 0,0 UV-I 0 W/m 0,7 C -1,1 C 14,5 km/h (3 Bft) 100,00 %
17.01.2018 06:14 1,3 C 3,3 C 96 % 997,0 hPa 0,0 l/m 7,6 km/h (2 Bft) S-SW 197 0 min 0,000 mm 0,0 UV-I 0 W/m 0,7 C 0,1 C 14,5 km/h (3 Bft) 100,00 %
17.01.2018 06:16 1,3 C 3,3 C 96 % 997,0 hPa 0,0 l/m 8,4 km/h (2 Bft) S 169 0 min 0,000 mm 0,0 UV-I 0 W/m 0,7 C -0,7 C 12,9 km/h (3 Bft) 96,00 %
17.01.2018 06:18 1,3 C 3,3 C 96 % 997,0 hPa 0,0 l/m 6,2 km/h (2 Bft) S-SW 199 0 min 0,000 mm 0,0 UV-I 0 W/m 0,7 C 1,3 C 11,3 km/h (2 Bft) 96,00 %
17.01.2018 06:20 1,3 C 3,3 C 96 % 996,9 hPa 0,0 l/m 4,2 km/h (1 Bft) S-SW 207 0 min 0,000 mm 0,0 UV-I 0 W/m 0,7 C 1,3 C 9,7 km/h (2 Bft) 97,14 %
17.01.2018 06:22 1,3 C 3,3 C 96 % 996,7 hPa 0,0 l/m 7,8 km/h (2 Bft) S-SO 165 0 min 0,000 mm 0,0 UV-I 0 W/m 0,7 C -0,1 C 12,9 km/h (3 Bft) 98,11 %
17.01.2018 06:24 1,4 C 3,3 C 96 % 996,7 hPa 0,0 l/m 7,1 km/h (2 Bft) S-SW 213 0 min 0,000 mm 0,0 UV-I 0 W/m 0,8 C 0,7 C 12,9 km/h (3 Bft) 98,11 %
17.01.2018 06:26 1,4 C 3,3 C 96 % 996,7 hPa 0,0 l/m 10,4 km/h (2 Bft) S-SW 206 0 min 0,000 mm 0,0 UV-I 0 W/m 0,8 C -2,2 C 14,5 km/h (3 Bft) 97,37 %
17.01.2018 06:28 1,4 C 3,3 C 96 % 996,6 hPa 0,0 l/m 8,4 km/h (2 Bft) S-SO 157 0 min 0,000 mm 0,0 UV-I 0 W/m 0,8 C -0,5 C 14,5 km/h (3 Bft) 96,43 %
17.01.2018 06:30 1,6 C 3,3 C 96 % 996,7 hPa 0,0 l/m 9,6 km/h (2 Bft) SW 225 0 min 0,000 mm 0,0 UV-I 0 W/m 1,0 C -1,4 C 16,1 km/h (3 Bft) 97,14 %
17.01.2018 06:32 1,6 C 3,3 C 96 % 996,8 hPa 0,0 l/m 11,8 km/h (2 Bft) SW 221 0 min 0,000 mm 0,0 UV-I 0 W/m 1,0 C -3,0 C 22,5 km/h (4 Bft) 98,11 %
17.01.2018 06:34 1,6 C 3,3 C 96 % 996,8 hPa 0,2 l/m 13,4 km/h (3 Bft) W-SW 257 0 min 0,000 mm 0,0 UV-I 0 W/m 1,0 C -4,1 C 19,3 km/h (3 Bft) 97,56 %
17.01.2018 06:36 1,7 C 3,3 C 96 % 996,9 hPa 0,0 l/m 13,5 km/h (3 Bft) SW 215 0 min 0,000 mm 0,0 UV-I 0 W/m 1,1 C -4,0 C 17,7 km/h (3 Bft) 96,23 %
17.01.2018 06:38 1,8 C 3,3 C 96 % 997,0 hPa 0,0 l/m 14,3 km/h (3 Bft) W-SW 239 0 min 0,000 mm 0,0 UV-I 0 W/m 1,2 C -4,4 C 24,1 km/h (4 Bft) 90,00 %
17.01.2018 06:40 1,9 C 3,3 C 96 % 996,9 hPa 0,0 l/m 16,3 km/h (3 Bft) W-SW 258 0 min 0,000 mm 0,0 UV-I 0 W/m 1,3 C -5,4 C 22,5 km/h (4 Bft) 95,12 %
17.01.2018 06:42 2,0 C 3,3 C 95 % 996,8 hPa 0,0 l/m 12,7 km/h (3 Bft) SW 235 0 min 0,000 mm 0,0 UV-I 0 W/m 1,3 C -3,2 C 22,5 km/h (4 Bft) 96,00 %
17.01.2018 06:44 2,1 C 3,3 C 95 % 996,8 hPa 0,0 l/m 16,7 km/h (3 Bft) SW 220 0 min 0,000 mm 0,0 UV-I 0 W/m 1,4 C -5,4 C 24,1 km/h (4 Bft) 96,00 %
17.01.2018 06:46 2,1 C 3,3 C 95 % 996,9 hPa 0,2 l/m 11,1 km/h (2 Bft) W-SW 250 0 min 0,000 mm 0,0 UV-I 0 W/m 1,4 C -2,0 C 14,5 km/h (3 Bft) 94,74 %
17.01.2018 06:48 2,1 C 3,3 C 95 % 996,8 hPa 0,0 l/m 12,5 km/h (3 Bft) SW 217 0 min 0,000 mm 0,0 UV-I 0 W/m 1,4 C -2,9 C 16,1 km/h (3 Bft) 96,00 %
17.01.2018 06:50 2,1 C 3,3 C 95 % 996,9 hPa 0,0 l/m 13,5 km/h (3 Bft) W 262 0 min 0,000 mm 0,0 UV-I 0 W/m 1,4 C -3,6 C 17,7 km/h (3 Bft) 94,00 %
17.01.2018 06:52 2,1 C 3,3 C 95 % 997,0 hPa 0,2 l/m 14,3 km/h (3 Bft) SW 233 0 min 0,000 mm 0,0 UV-I 0 W/m 1,4 C -4,0 C 22,5 km/h (4 Bft) 91,67 %
17.01.2018 06:54 2,1 C 3,3 C 95 % 996,9 hPa 0,0 l/m 13,2 km/h (3 Bft) W-SW 253 0 min 0,000 mm 0,0 UV-I 0 W/m 1,4 C -3,4 C 19,3 km/h (3 Bft) 93,48 %
17.01.2018 06:56 2,0 C 3,3 C 95 % 996,9 hPa 0,2 l/m 12,0 km/h (2 Bft) W 259 0 min 0,000 mm 0,0 UV-I 0 W/m 1,3 C -2,7 C 16,1 km/h (3 Bft) 95,83 %
17.01.2018 06:58 2,0 C 3,3 C 95 % 996,9 hPa 0,2 l/m 13,6 km/h (3 Bft) W-SW 257 0 min 0,000 mm 0,0 UV-I 0 W/m 1,3 C -3,7 C 19,3 km/h (3 Bft) 91,49 %
17.01.2018 07:00 2,0 C 3,3 C 95 % 996,9 hPa 0,0 l/m 13,3 km/h (3 Bft) SW 236 0 min 0,000 mm 0,0 UV-I 0 W/m 1,3 C -3,5 C 19,3 km/h (3 Bft) 89,36 %
17.01.2018 07:02 2,1 C 3,3 C 95 % 996,9 hPa 0,2 l/m 13,7 km/h (3 Bft) SW 220 0 min 0,000 mm 0,0 UV-I 0 W/m 1,4 C -3,7 C 19,3 km/h (3 Bft) 93,18 %
17.01.2018 07:04 2,1 C 3,3 C 95 % 996,7 hPa 0,0 l/m 13,3 km/h (3 Bft) SW 235 0 min 0,000 mm 0,0 UV-I 0 W/m 1,4 C -3,4 C 19,3 km/h (3 Bft) 96,00 %
17.01.2018 07:06 2,2 C 3,3 C 95 % 996,8 hPa 0,2 l/m 11,9 km/h (2 Bft) SW 232 0 min 0,000 mm 0,0 UV-I 0 W/m 1,5 C -2,4 C 17,7 km/h (3 Bft) 95,65 %
17.01.2018 07:08 2,1 C 3,3 C 95 % 996,8 hPa 0,0 l/m 12,8 km/h (3 Bft) SW 233 0 min 0,000 mm 0,0 UV-I 0 W/m 1,4 C -3,1 C 19,3 km/h (3 Bft) 93,85 %
17.01.2018 07:10 2,1 C 3,3 C 95 % 996,7 hPa 0,0 l/m 12,3 km/h (3 Bft) W 261 0 min 0,000 mm 0,0 UV-I 0 W/m 1,4 C -2,8 C 16,1 km/h (3 Bft) 96,00 %
17.01.2018 07:12 2,1 C 3,3 C 95 % 996,7 hPa 0,0 l/m 9,8 km/h (2 Bft) W 262 0 min 0,000 mm 0,0 UV-I 0 W/m 1,4 C -1,0 C 12,9 km/h (3 Bft) 95,74 %
17.01.2018 07:14 2,1 C 3,3 C 95 % 996,7 hPa 0,2 l/m 10,1 km/h (2 Bft) SW 231 0 min 0,000 mm 0,0 UV-I 0 W/m 1,4 C -1,2 C 12,9 km/h (3 Bft) 97,73 %
17.01.2018 07:16 2,1 C 3,3 C 95 % 996,7 hPa 0,0 l/m 9,3 km/h (2 Bft) W-SW 250 0 min 0,000 mm 0,0 UV-I 0 W/m 1,4 C -0,6 C 16,1 km/h (3 Bft) 98,11 %
17.01.2018 07:18 2,0 C 3,3 C 95 % 996,6 hPa 0,0 l/m 6,4 km/h (2 Bft) W-NW 295 0 min 0,000 mm 0,0 UV-I 0 W/m 1,3 C 2,0 C 12,9 km/h (3 Bft) 97,37 %
17.01.2018 07:20 2,0 C 3,3 C 95 % 996,7 hPa 0,0 l/m 6,1 km/h (2 Bft) W 272 0 min 0,000 mm 0,0 UV-I 0 W/m 1,3 C 2,0 C 12,9 km/h (3 Bft) 97,87 %
17.01.2018 07:22 1,9 C 3,3 C 95 % 996,7 hPa 0,0 l/m 5,0 km/h (1 Bft) W 281 0 min 0,000 mm 0,0 UV-I 0 W/m 1,2 C 1,9 C 9,7 km/h (2 Bft) 97,22 %
17.01.2018 07:24 1,8 C 3,3 C 96 % 996,9 hPa 0,0 l/m 2,7 km/h (1 Bft) W 281 0 min 0,000 mm 0,0 UV-I 0 W/m 1,2 C 1,8 C 4,8 km/h (1 Bft) 96,88 %
17.01.2018 07:26 1,8 C 3,3 C 95 % 997,0 hPa 0,0 l/m 3,3 km/h (1 Bft) W 280 0 min 0,000 mm 0,0 UV-I 0 W/m 1,1 C 1,8 C 6,4 km/h (2 Bft) 97,56 %
17.01.2018 07:28 1,8 C 3,3 C 96 % 997,0 hPa 0,0 l/m 4,2 km/h (1 Bft) W 270 0 min 0,000 mm 0,0 UV-I 0 W/m 1,2 C 1,8 C 6,4 km/h (2 Bft) 93,75 %
17.01.2018 07:30 1,8 C 3,3 C 96 % 997,0 hPa 0,2 l/m 5,2 km/h (1 Bft) W 261 0 min 0,000 mm 0,0 UV-I 0 W/m 1,2 C 1,8 C 8,0 km/h (2 Bft) 95,74 %
17.01.2018 07:32 1,8 C 3,3 C 96 % 997,0 hPa 0,0 l/m 4,9 km/h (1 Bft) W 261 0 min 0,000 mm 0,0 UV-I 0 W/m 1,2 C 1,8 C 6,4 km/h (2 Bft) 100,00 %
17.01.2018 07:34 1,8 C 3,3 C 96 % 997,0 hPa 0,0 l/m 5,2 km/h (1 Bft) W-SW 240 0 min 0,000 mm 0,0 UV-I 0 W/m 1,2 C 1,8 C 9,7 km/h (2 Bft) 97,87 %
17.01.2018 07:36 1,8 C 3,3 C 96 % 997,0 hPa 0,0 l/m 6,3 km/h (2 Bft) SW 219 0 min 0,000 mm 0,0 UV-I 0 W/m 1,2 C 1,8 C 11,3 km/h (2 Bft) 100,00 %
17.01.2018 07:38 1,8 C 3,3 C 96 % 997,0 hPa 0,0 l/m 7,4 km/h (2 Bft) W-SW 250 0 min 0,000 mm 0,0 UV-I 0 W/m 1,2 C 0,8 C 17,7 km/h (3 Bft) 100,00 %
17.01.2018 07:40 1,8 C 3,3 C 96 % 997,0 hPa 0,0 l/m 6,5 km/h (2 Bft) W-SW 257 0 min 0,000 mm 0,0 UV-I 0 W/m 1,2 C 1,7 C 11,3 km/h (2 Bft) 100,00 %
17.01.2018 07:42 1,8 C 3,3 C 96 % 997,0 hPa 0,0 l/m 8,5 km/h (2 Bft) SW 232 0 min 0,000 mm 0,0 UV-I 0 W/m 1,2 C -0,2 C 12,9 km/h (3 Bft) 98,00 %
17.01.2018 07:44 1,9 C 3,3 C 96 % 997,2 hPa 0,0 l/m 12,8 km/h (3 Bft) W-SW 246 0 min 0,000 mm 0,0 UV-I 0 W/m 1,3 C -3,3 C 20,9 km/h (4 Bft) 100,00 %
17.01.2018 07:46 2,0 C 3,3 C 96 % 997,2 hPa 0,0 l/m 12,3 km/h (3 Bft) W-SW 249 0 min 0,000 mm 0,0 UV-I 0 W/m 1,4 C -2,9 C 17,7 km/h (3 Bft) 100,00 %
17.01.2018 07:48 2,1 C 3,3 C 96 % 997,1 hPa 0,2 l/m 11,1 km/h (2 Bft) SW 232 0 min 0,000 mm 0,0 UV-I 0 W/m 1,5 C -2,0 C 17,7 km/h (3 Bft) 100,00 %
17.01.2018 07:50 2,1 C 3,3 C 96 % 997,1 hPa 0,0 l/m 17,6 km/h (3 Bft) W-SW 252 0 min 0,000 mm 0,0 UV-I 0 W/m 1,5 C -5,8 C 25,7 km/h (4 Bft) 100,00 %
17.01.2018 07:52 2,2 C 3,3 C 96 % 997,1 hPa 0,0 l/m 18,0 km/h (3 Bft) W-SW 242 0 min 0,000 mm 0,0 UV-I 0 W/m 1,6 C -5,9 C 25,7 km/h (4 Bft) 100,00 %
17.01.2018 07:54 2,2 C 3,3 C 96 % 997,2 hPa 0,0 l/m 16,0 km/h (3 Bft) W 269 0 min 0,000 mm 0,0 UV-I 0 W/m 1,6 C -4,9 C 25,7 km/h (4 Bft) 98,00 %
17.01.2018 07:56 2,2 C 3,3 C 96 % 997,2 hPa 0,2 l/m 17,2 km/h (3 Bft) W 259 0 min 0,000 mm 0,0 UV-I 0 W/m 1,6 C -5,5 C 30,6 km/h (5 Bft) 100,00 %
17.01.2018 07:58 2,2 C 3,3 C 95 % 997,2 hPa 0,0 l/m 23,3 km/h (4 Bft) W 265 0 min 0,000 mm 0,0 UV-I 0 W/m 1,5 C -8,1 C 37,0 km/h (5 Bft) 100,00 %
17.01.2018 08:00 2,2 C 3,3 C 95 % 997,3 hPa 0,2 l/m 18,9 km/h (3 Bft) W-SW 238 0 min 0,000 mm 0,0 UV-I 0 W/m 1,5 C -6,3 C 24,1 km/h (4 Bft) 100,00 %
17.01.2018 08:02 2,1 C 3,3 C 95 % 997,4 hPa 0,2 l/m 19,0 km/h (3 Bft) SW 234 0 min 0,000 mm 0,0 UV-I 0 W/m 1,4 C -6,5 C 25,7 km/h (4 Bft) 97,44 %
17.01.2018 08:04 2,0 C 3,3 C 95 % 997,5 hPa 0,2 l/m 18,2 km/h (3 Bft) W-SW 252 0 min 0,000 mm 0,0 UV-I 0 W/m 1,3 C -6,2 C 27,4 km/h (4 Bft) 100,00 %
17.01.2018 08:06 1,9 C 3,3 C 95 % 997,4 hPa 0,2 l/m 17,0 km/h (3 Bft) S-SW 213 0 min 0,000 mm 0,0 UV-I 0 W/m 1,2 C -5,8 C 30,6 km/h (5 Bft) 100,00 %
17.01.2018 08:08 1,8 C 3,3 C 95 % 997,5 hPa 0,2 l/m 13,4 km/h (3 Bft) W-SW 255 0 min 0,000 mm 0,0 UV-I 0 W/m 1,1 C -3,8 C 22,5 km/h (4 Bft) 100,00 %
17.01.2018 08:10 1,7 C 3,3 C 95 % 997,7 hPa 0,2 l/m 15,1 km/h (3 Bft) W 266 0 min 0,000 mm 0,0 UV-I 0 W/m 1,0 C -5,0 C 20,9 km/h (4 Bft) 100,00 %
17.01.2018 08:12 1,6 C 3,3 C 95 % 997,7 hPa 0,0 l/m 12,2 km/h (2 Bft) SW 231 0 min 0,000 mm 0,0 UV-I 5 W/m 0,9 C -3,3 C 19,3 km/h (3 Bft) 100,00 %
17.01.2018 08:14 1,4 C 3,3 C 95 % 997,7 hPa 0,0 l/m 13,2 km/h (3 Bft) W 273 0 min 0,000 mm 0,0 UV-I 5 W/m 0,7 C -4,2 C 16,1 km/h (3 Bft) 98,11 %
17.01.2018 08:16 1,3 C 3,3 C 95 % 997,8 hPa 0,2 l/m 10,9 km/h (2 Bft) W-SW 247 0 min 0,000 mm 0,0 UV-I 2 W/m 0,6 C -2,7 C 16,1 km/h (3 Bft) 100,00 %
17.01.2018 08:18 1,2 C 3,3 C 95 % 997,8 hPa 0,0 l/m 11,9 km/h (2 Bft) W-SW 247 0 min 0,000 mm 0,0 UV-I 0 W/m 0,5 C -3,5 C 19,3 km/h (3 Bft) 100,00 %
17.01.2018 08:20 1,2 C 3,3 C 96 % 997,6 hPa 0,2 l/m 14,6 km/h (3 Bft) W-SW 258 0 min 0,000 mm 0,0 UV-I 2 W/m 0,6 C -5,3 C 22,5 km/h (4 Bft) 100,00 %
17.01.2018 08:22 1,2 C 3,3 C 96 % 997,6 hPa 0,0 l/m 12,3 km/h (3 Bft) SW 218 0 min 0,000 mm 0,0 UV-I 4 W/m 0,6 C -3,8 C 19,3 km/h (3 Bft) 97,87 %
17.01.2018 08:24 1,2 C 3,3 C 96 % 997,6 hPa 0,2 l/m 12,4 km/h (3 Bft) W 266 0 min 0,000 mm 0,0 UV-I 4 W/m 0,6 C -3,9 C 20,9 km/h (4 Bft) 97,73 %
17.01.2018 08:26 1,2 C 3,3 C 96 % 997,6 hPa 0,2 l/m 11,7 km/h (2 Bft) W-SW 252 0 min 0,000 mm 0,0 UV-I 1 W/m 0,6 C -3,4 C 17,7 km/h (3 Bft) 100,00 %
17.01.2018 08:28 1,2 C 3,3 C 96 % 997,8 hPa 0,0 l/m 12,0 km/h (2 Bft) W 276 0 min 0,000 mm 0,0 UV-I 3 W/m 0,6 C -3,6 C 19,3 km/h (3 Bft) 100,00 %
17.01.2018 08:30 1,2 C 3,3 C 96 % 998,0 hPa 0,0 l/m 13,3 km/h (3 Bft) W-NW 294 0 min 0,000 mm 0,0 UV-I 2 W/m 0,6 C -4,5 C 30,6 km/h (5 Bft) 98,00 %
17.01.2018 08:32 1,1 C 3,3 C 96 % 998,0 hPa 0,0 l/m 16,6 km/h (3 Bft) W 273 0 min 0,000 mm 0,0 UV-I 0 W/m 0,5 C -6,5 C 30,6 km/h (5 Bft) 100,00 %
17.01.2018 08:34 1,0 C 3,3 C 96 % 997,8 hPa 0,0 l/m 20,0 km/h (4 Bft) W 268 0 min 0,000 mm 0,0 UV-I 0 W/m 0,4 C -8,3 C 27,4 km/h (4 Bft) 97,37 %
17.01.2018 08:36 0,9 C 3,3 C 96 % 997,8 hPa 0,0 l/m 18,1 km/h (3 Bft) W 276 0 min 0,000 mm 0,0 UV-I 0 W/m 0,3 C -7,6 C 29,0 km/h (5 Bft) 100,00 %
17.01.2018 08:38 0,9 C 3,3 C 96 % 997,8 hPa 0,0 l/m 19,1 km/h (3 Bft) SW 222 0 min 0,000 mm 0,0 UV-I 0 W/m 0,3 C -8,1 C 24,1 km/h (4 Bft) 100,00 %
17.01.2018 08:40 0,9 C 3,3 C 96 % 997,8 hPa 0,0 l/m 15,6 km/h (3 Bft) SW 232 0 min 0,000 mm 0,0 UV-I 0 W/m 0,3 C -6,2 C 22,5 km/h (4 Bft) 100,00 %
17.01.2018 08:42 0,8 C 3,3 C 96 % 997,7 hPa 0,0 l/m 13,9 km/h (3 Bft) SW 221 0 min 0,000 mm 0,0 UV-I 3 W/m 0,2 C -5,3 C 20,9 km/h (4 Bft) 96,30 %
17.01.2018 08:44 0,8 C 3,3 C 96 % 997,7 hPa 0,0 l/m 14,3 km/h (3 Bft) W-SW 243 0 min 0,000 mm 0,0 UV-I 5 W/m 0,2 C -5,6 C 20,9 km/h (4 Bft) 96,23 %
17.01.2018 08:46 0,7 C 3,3 C 96 % 997,7 hPa 0,0 l/m 15,3 km/h (3 Bft) W-SW 245 0 min 0,000 mm 0,0 UV-I 7 W/m 0,1 C -6,3 C 22,5 km/h (4 Bft) 96,61 %
17.01.2018 08:48 0,7 C 3,3 C 96 % 997,8 hPa 0,0 l/m 16,7 km/h (3 Bft) SW 227 0 min 0,000 mm 0,0 UV-I 13 W/m 0,1 C -7,1 C 22,5 km/h (4 Bft) 97,73 %
17.01.2018 08:50 0,7 C 3,3 C 96 % 997,9 hPa 0,0 l/m 15,0 km/h (3 Bft) W-SW 253 0 min 0,000 mm 0,0 UV-I 19 W/m 0,1 C -6,1 C 22,5 km/h (4 Bft) 96,23 %
17.01.2018 08:52 0,7 C 3,3 C 96 % 997,8 hPa 0,0 l/m 15,3 km/h (3 Bft) W-SW 246 0 min 0,000 mm 0,0 UV-I 31 W/m 0,1 C -6,3 C 22,5 km/h (4 Bft) 97,37 %
17.01.2018 08:54 0,8 C 3,3 C 96 % 997,8 hPa 0,2 l/m 16,2 km/h (3 Bft) W-SW 247 0 min 0,000 mm 0,0 UV-I 39 W/m 0,2 C -6,7 C 24,1 km/h (4 Bft) 98,00 %
17.01.2018 08:56 0,8 C 3,3 C 96 % 997,7 hPa 0,0 l/m 15,7 km/h (3 Bft) S-SW 204 0 min 0,000 mm 0,0 UV-I 43 W/m 0,2 C -6,4 C 22,5 km/h (4 Bft) 96,23 %
17.01.2018 08:58 0,8 C 3,3 C 96 % 997,7 hPa 0,0 l/m 14,3 km/h (3 Bft) SW 225 0 min 0,000 mm 0,0 UV-I 36 W/m 0,2 C -5,6 C 22,5 km/h (4 Bft) 95,45 %
17.01.2018 09:00 0,9 C 3,3 C 97 % 997,7 hPa 0,2 l/m 14,5 km/h (3 Bft) SW 229 0 min 0,000 mm 0,0 UV-I 37 W/m 0,5 C -5,6 C 20,9 km/h (4 Bft) 97,87 %
17.01.2018 09:02 0,9 C 3,3 C 97 % 997,7 hPa 0,0 l/m 15,4 km/h (3 Bft) S 175 0 min 0,000 mm 0,0 UV-I 42 W/m 0,5 C -6,1 C 20,9 km/h (4 Bft) 97,56 %
17.01.2018 09:04 1,0 C 3,3 C 97 % 997,6 hPa 0,0 l/m 13,3 km/h (3 Bft) SW 235 0 min 0,000 mm 0,0 UV-I 53 W/m 0,6 C -4,7 C 19,3 km/h (3 Bft) 95,12 %
17.01.2018 09:06 1,1 C 3,3 C 96 % 997,6 hPa 0,0 l/m 12,1 km/h (2 Bft) SW 215 0 min 0,000 mm 0,0 UV-I 65 W/m 0,5 C -3,8 C 19,3 km/h (3 Bft) 94,34 %
17.01.2018 09:08 1,1 C 3,3 C 96 % 997,6 hPa 0,2 l/m 10,3 km/h (2 Bft) S-SW 210 0 min 0,000 mm 0,0 UV-I 72 W/m 0,5 C -2,5 C 16,1 km/h (3 Bft) 97,87 %
17.01.2018 09:10 1,1 C 3,3 C 96 % 997,5 hPa 0,0 l/m 12,9 km/h (3 Bft) W-SW 238 0 min 0,000 mm 0,0 UV-I 67 W/m 0,5 C -4,3 C 17,7 km/h (3 Bft) 95,12 %
17.01.2018 09:12 1,2 C 3,3 C 96 % 997,5 hPa 0,0 l/m 11,6 km/h (2 Bft) SW 227 0 min 0,000 mm 0,0 UV-I 50 W/m 0,6 C -3,3 C 16,1 km/h (3 Bft) 98,21 %
17.01.2018 09:14 1,2 C 3,3 C 96 % 997,6 hPa 0,0 l/m 12,1 km/h (2 Bft) S-SW 195 0 min 0,000 mm 0,0 UV-I 41 W/m 0,6 C -3,7 C 19,3 km/h (3 Bft) 95,74 %
17.01.2018 09:16 1,2 C 3,3 C 96 % 997,6 hPa 0,2 l/m 14,3 km/h (3 Bft) S 177 0 min 0,000 mm 0,0 UV-I 39 W/m 0,6 C -5,1 C 19,3 km/h (3 Bft) 94,00 %
17.01.2018 09:18 1,3 C 3,3 C 96 % 997,5 hPa 0,0 l/m 17,8 km/h (3 Bft) S-SW 213 0 min 0,000 mm 0,0 UV-I 40 W/m 0,7 C -6,9 C 24,1 km/h (4 Bft) 97,56 %
17.01.2018 09:20 1,4 C 3,3 C 96 % 997,5 hPa 0,0 l/m 14,7 km/h (3 Bft) SW 219 0 min 0,000 mm 0,0 UV-I 43 W/m 0,8 C -5,1 C 20,9 km/h (4 Bft) 100,00 %
17.01.2018 09:22 1,6 C 3,3 C 96 % 997,4 hPa 0,0 l/m 14,6 km/h (3 Bft) S-SW 213 0 min 0,000 mm 0,0 UV-I 49 W/m 1,0 C -4,8 C 25,7 km/h (4 Bft) 100,00 %
17.01.2018 09:24 1,7 C 3,3 C 96 % 997,4 hPa 0,0 l/m 18,3 km/h (3 Bft) SW 219 0 min 0,000 mm 0,0 UV-I 60 W/m 1,1 C -6,7 C 27,4 km/h (4 Bft) 97,44 %
17.01.2018 09:26 1,9 C 3,3 C 96 % 997,3 hPa 0,2 l/m 20,4 km/h (4 Bft) W-SW 257 0 min 0,000 mm 0,0 UV-I 70 W/m 1,3 C -7,4 C 32,2 km/h (5 Bft) 100,00 %
17.01.2018 09:28 2,2 C 3,3 C 95 % 997,5 hPa 0,0 l/m 21,0 km/h (4 Bft) SW 225 2 min 0,000 mm 0,0 UV-I 155 W/m 1,5 C -7,2 C 33,8 km/h (5 Bft) 100,00 %
17.01.2018 09:30 2,3 C 3,3 C 94 % 997,5 hPa 0,2 l/m 19,9 km/h (4 Bft) S-SW 207 2 min 0,000 mm 0,0 UV-I 175 W/m 1,4 C -6,6 C 29,0 km/h (5 Bft) 100,00 %
17.01.2018 09:32 2,4 C 3,3 C 93 % 997,6 hPa 0,0 l/m 22,1 km/h (4 Bft) SW 215 2 min 0,000 mm 0,0 UV-I 189 W/m 1,4 C -7,4 C 32,2 km/h (5 Bft) 96,23 %
17.01.2018 09:34 2,7 C 3,3 C 92 % 997,6 hPa 0,0 l/m 26,9 km/h (4 Bft) SW 229 2 min 0,000 mm 0,0 UV-I 255 W/m 1,5 C -8,7 C 41,8 km/h (6 Bft) 100,00 %
17.01.2018 09:36 2,8 C 3,3 C 92 % 997,6 hPa 0,2 l/m 27,0 km/h (4 Bft) SW 228 2 min 0,000 mm 0,0 UV-I 238 W/m 1,6 C -8,6 C 40,2 km/h (6 Bft) 98,46 %
17.01.2018 09:38 2,9 C 3,3 C 91 % 997,7 hPa 0,2 l/m 24,3 km/h (4 Bft) W-SW 248 2 min 0,000 mm 0,0 UV-I 242 W/m 1,6 C -7,5 C 35,4 km/h (5 Bft) 100,00 %
17.01.2018 09:40 3,1 C 3,3 C 91 % 997,7 hPa 0,0 l/m 23,1 km/h (4 Bft) SW 233 2 min 0,000 mm 0,0 UV-I 270 W/m 1,8 C -6,8 C 37,0 km/h (5 Bft) 100,00 %
17.01.2018 09:42 3,2 C 3,3 C 90 % 997,7 hPa 0,2 l/m 18,6 km/h (3 Bft) S-SW 209 2 min 0,000 mm 0,0 UV-I 215 W/m 1,7 C -4,9 C 27,4 km/h (4 Bft) 100,00 %
17.01.2018 09:44 3,2 C 3,3 C 90 % 997,7 hPa 0,0 l/m 22,0 km/h (4 Bft) W-SW 253 2 min 0,000 mm 0,0 UV-I 175 W/m 1,7 C -6,3 C 33,8 km/h (5 Bft) 97,14 %
17.01.2018 09:46 3,1 C 3,3 C 90 % 997,8 hPa 0,2 l/m 19,8 km/h (3 Bft) W-SW 249 0 min 0,000 mm 0,0 UV-I 85 W/m 1,6 C -5,5 C 32,2 km/h (5 Bft) 98,21 %
17.01.2018 09:48 3,1 C 3,3 C 90 % 997,9 hPa 0,0 l/m 23,2 km/h (4 Bft) W-SW 257 0 min 0,000 mm 0,0 UV-I 30 W/m 1,6 C -6,9 C 30,6 km/h (5 Bft) 100,00 %
17.01.2018 09:50 3,0 C 3,3 C 90 % 998,1 hPa 0,0 l/m 20,1 km/h (4 Bft) W-SW 254 0 min 0,000 mm 0,0 UV-I 15 W/m 1,5 C -5,8 C 30,6 km/h (5 Bft) 100,00 %
17.01.2018 09:52 2,9 C 3,3 C 90 % 998,1 hPa 0,4 l/m 30,1 km/h (5 Bft) W-SW 252 0 min 0,000 mm 0,0 UV-I 11 W/m 1,4 C -9,4 C 49,9 km/h (6 Bft) 100,00 %
17.01.2018 09:54 2,9 C 3,3 C 90 % 998,1 hPa 0,0 l/m 24,7 km/h (4 Bft) W 264 0 min 0,000 mm 0,0 UV-I 9 W/m 1,4 C -7,7 C 35,4 km/h (5 Bft) 100,00 %
17.01.2018 09:56 2,7 C 3,3 C 91 % 998,6 hPa 0,2 l/m 26,5 km/h (4 Bft) W 271 0 min 0,000 mm 0,0 UV-I 6 W/m 1,4 C -8,6 C 41,8 km/h (6 Bft) 100,00 %
17.01.2018 09:58 2,4 C 3,3 C 91 % 999,0 hPa 0,2 l/m 24,6 km/h (4 Bft) W-SW 241 0 min 0,000 mm 0,0 UV-I 5 W/m 1,1 C -8,3 C 32,2 km/h (5 Bft) 100,00 %
17.01.2018 10:00 2,1 C 3,3 C 91 % 999,0 hPa 0,2 l/m 28,3 km/h (4 Bft) SW 228 0 min 0,000 mm 0,0 UV-I 5 W/m 0,8 C -10,0 C 41,8 km/h (6 Bft) 97,87 %
17.01.2018 10:02 1,8 C 3,3 C 92 % 998,8 hPa 0,2 l/m 26,2 km/h (4 Bft) W-SW 254 0 min 0,026 mm 0,0 UV-I 7 W/m 0,6 C -9,7 C 43,5 km/h (6 Bft) 100,00 %
17.01.2018 10:04 1,6 C 3,3 C 93 % 998,8 hPa 0,0 l/m 27,6 km/h (4 Bft) W 259 0 min 0,000 mm 0,0 UV-I 9 W/m 0,6 C -10,4 C 45,1 km/h (6 Bft) 100,00 %
17.01.2018 10:06 1,4 C 3,3 C 93 % 998,9 hPa 0,2 l/m 30,3 km/h (5 Bft) W-SW 239 0 min 0,000 mm 0,0 UV-I 9 W/m 0,4 C -11,5 C 45,1 km/h (6 Bft) 100,00 %
17.01.2018 10:08 1,3 C 3,3 C 93 % 999,0 hPa 0,0 l/m 34,1 km/h (5 Bft) W 264 0 min 0,000 mm 0,0 UV-I 8 W/m 0,3 C -12,7 C 62,8 km/h (8 Bft) 96,23 %
17.01.2018 10:10 1,2 C 3,3 C 93 % 999,0 hPa 0,0 l/m 31,5 km/h (5 Bft) W 269 0 min 0,000 mm 0,0 UV-I 7 W/m 0,2 C -12,1 C 45,1 km/h (6 Bft) 100,00 %
17.01.2018 10:12 1,1 C 3,3 C 94 % 999,1 hPa 0,0 l/m 28,2 km/h (4 Bft) W-SW 254 0 min 0,000 mm 0,0 UV-I 7 W/m 0,2 C -11,3 C 49,9 km/h (6 Bft) 100,00 %
17.01.2018 10:14 1,0 C 3,3 C 94 % 999,3 hPa 0,2 l/m 24,6 km/h (4 Bft) W-SW 253 0 min 0,000 mm 0,0 UV-I 8 W/m 0,1 C -10,2 C 30,6 km/h (5 Bft) 100,00 %
17.01.2018 10:16 0,9 C 3,3 C 94 % 999,3 hPa 0,0 l/m 29,5 km/h (5 Bft) W-SW 237 0 min 0,000 mm 0,0 UV-I 12 W/m 0,0 C -12,0 C 48,3 km/h (6 Bft) 100,00 %
17.01.2018 10:18 1,0 C 3,3 C 95 % 999,4 hPa 0,0 l/m 29,8 km/h (5 Bft) W 269 0 min 0,000 mm 0,0 UV-I 16 W/m 0,3 C -11,9 C 43,5 km/h (6 Bft) 100,00 %
17.01.2018 10:20 1,1 C 3,3 C 95 % 999,5 hPa 0,0 l/m 28,0 km/h (4 Bft) W-SW 250 0 min 0,000 mm 0,0 UV-I 14 W/m 0,4 C -11,2 C 38,6 km/h (5 Bft) 100,00 %
17.01.2018 10:22 1,1 C 3,3 C 95 % 999,7 hPa 0,0 l/m 24,2 km/h (4 Bft) SW 236 0 min 0,000 mm 0,0 UV-I 19 W/m 0,4 C -9,9 C 33,8 km/h (5 Bft) 98,11 %
17.01.2018 10:24 1,1 C 3,3 C 95 % 999,7 hPa 0,2 l/m 23,6 km/h (4 Bft) SW 234 0 min 0,000 mm 0,0 UV-I 24 W/m 0,4 C -9,7 C 38,6 km/h (5 Bft) 100,00 %
17.01.2018 10:26 1,2 C 3,3 C 95 % 999,9 hPa 0,0 l/m 21,0 km/h (4 Bft) W-SW 257 0 min 0,000 mm 0,0 UV-I 28 W/m 0,5 C -8,5 C 30,6 km/h (5 Bft) 100,00 %
17.01.2018 10:28 1,2 C 3,3 C 95 % 999,9 hPa 0,0 l/m 18,5 km/h (3 Bft) W-SW 248 0 min 0,000 mm 0,0 UV-I 39 W/m 0,5 C -7,4 C 35,4 km/h (5 Bft) 100,00 %
17.01.2018 10:30 1,2 C 3,3 C 95 % 999,9 hPa 0,0 l/m 18,5 km/h (3 Bft) W-SW 248 0 min 0,000 mm 0,0 UV-I 50 W/m 0,5 C -7,4 C 29,0 km/h (5 Bft) 98,11 %
17.01.2018 10:32 1,3 C 3,3 C 95 % 1000,0 hPa 0,0 l/m 23,1 km/h (4 Bft) W-SW 257 0 min 0,000 mm 0,0 UV-I 54 W/m 0,6 C -9,2 C 33,8 km/h (5 Bft) 100,00 %
17.01.2018 10:34 1,3 C 3,3 C 95 % 1000,1 hPa 0,2 l/m 20,9 km/h (4 Bft) W-SW 257 0 min 0,000 mm 0,0 UV-I 52 W/m 0,6 C -8,3 C 29,0 km/h (5 Bft) 100,00 %
17.01.2018 10:36 1,4 C 3,3 C 94 % 1000,2 hPa 0,0 l/m 22,4 km/h (4 Bft) W-SW 249 0 min 0,000 mm 0,0 UV-I 53 W/m 0,5 C -8,8 C 37,0 km/h (5 Bft) 100,00 %
17.01.2018 10:38 1,4 C 3,3 C 94 % 1000,2 hPa 0,0 l/m 22,2 km/h (4 Bft) W-SW 245 0 min 0,000 mm 0,0 UV-I 45 W/m 0,5 C -8,8 C 32,2 km/h (5 Bft) 98,21 %
17.01.2018 10:40 1,4 C 3,3 C 94 % 1000,3 hPa 0,0 l/m 22,5 km/h (4 Bft) W 267 0 min 0,000 mm 0,0 UV-I 42 W/m 0,5 C -8,9 C 38,6 km/h (5 Bft) 97,44 %
17.01.2018 10:42 1,5 C 3,3 C 94 % 1000,3 hPa 0,0 l/m 24,3 km/h (4 Bft) W-SW 255 0 min 0,000 mm 0,0 UV-I 41 W/m 0,6 C -9,4 C 35,4 km/h (5 Bft) 97,87 %
17.01.2018 10:44 1,5 C 3,3 C 94 % 1000,3 hPa 0,0 l/m 26,3 km/h (4 Bft) W 263 0 min 0,000 mm 0,0 UV-I 43 W/m 0,6 C -10,1 C 48,3 km/h (6 Bft) 94,00 %
17.01.2018 10:46 1,6 C 3,3 C 93 % 1000,4 hPa 0,2 l/m 23,9 km/h (4 Bft) W 265 0 min 0,000 mm 0,0 UV-I 36 W/m 0,6 C -9,2 C 46,7 km/h (6 Bft) 97,37 %
17.01.2018 10:48 1,6 C 3,3 C 93 % 1000,5 hPa 0,0 l/m 18,1 km/h (3 Bft) W 262 0 min 0,000 mm 0,0 UV-I 34 W/m 0,6 C -6,7 C 29,0 km/h (5 Bft) 98,15 %
17.01.2018 10:50 1,6 C 3,3 C 93 % 1000,5 hPa 0,0 l/m 22,8 km/h (4 Bft) W 273 0 min 0,000 mm 0,0 UV-I 40 W/m 0,6 C -8,7 C 35,4 km/h (5 Bft) 97,56 %
17.01.2018 10:52 1,5 C 3,3 C 93 % 1000,5 hPa 0,0 l/m 18,7 km/h (3 Bft) W 265 0 min 0,000 mm 0,0 UV-I 68 W/m 0,5 C -7,1 C 25,7 km/h (4 Bft) 98,11 %
17.01.2018 10:54 1,6 C 3,3 C 93 % 1000,6 hPa 0,0 l/m 19,4 km/h (3 Bft) W 264 0 min 0,000 mm 0,0 UV-I 68 W/m 0,6 C -7,3 C 24,1 km/h (4 Bft) 96,23 %
17.01.2018 10:56 1,6 C 3,3 C 93 % 1000,6 hPa 0,0 l/m 17,3 km/h (3 Bft) W 270 0 min 0,000 mm 0,0 UV-I 62 W/m 0,6 C -6,3 C 25,7 km/h (4 Bft) 90,24 %
17.01.2018 10:58 1,6 C 3,3 C 93 % 1000,6 hPa 0,2 l/m 21,0 km/h (4 Bft) W-SW 241 0 min 0,000 mm 0,0 UV-I 47 W/m 0,6 C -8,0 C 35,4 km/h (5 Bft) 94,00 %
17.01.2018 11:00 1,6 C 3,3 C 93 % 1000,7 hPa 0,0 l/m 19,3 km/h (3 Bft) W-SW 250 0 min 0,025 mm 0,0 UV-I 41 W/m 0,6 C -7,2 C 32,2 km/h (5 Bft) 95,74 %
17.01.2018 11:02 1,7 C 3,3 C 93 % 1000,7 hPa 0,0 l/m 18,7 km/h (3 Bft) W 267 0 min 0,000 mm 0,0 UV-I 33 W/m 0,7 C -6,8 C 29,0 km/h (5 Bft) 93,62 %
17.01.2018 11:04 1,7 C 3,3 C 93 % 1000,8 hPa 0,0 l/m 19,0 km/h (3 Bft) W-SW 254 0 min 0,000 mm 0,0 UV-I 23 W/m 0,7 C -7,0 C 25,7 km/h (4 Bft) 95,12 %
17.01.2018 11:06 1,6 C 3,3 C 93 % 1000,8 hPa 0,0 l/m 26,6 km/h (4 Bft) W 266 0 min 0,000 mm 0,0 UV-I 15 W/m 0,6 C -10,1 C 43,5 km/h (6 Bft) 95,74 %
17.01.2018 11:08 1,4 C 3,3 C 93 % 1000,8 hPa 0,0 l/m 21,5 km/h (4 Bft) NW 316 0 min 0,000 mm 0,0 UV-I 17 W/m 0,4 C -8,5 C 32,2 km/h (5 Bft) 96,00 %
17.01.2018 11:10 1,3 C 3,3 C 93 % 1000,8 hPa 0,0 l/m 19,1 km/h (3 Bft) W 266 0 min 0,000 mm 0,0 UV-I 19 W/m 0,3 C -7,5 C 32,2 km/h (5 Bft) 91,67 %
17.01.2018 11:12 1,3 C 3,3 C 93 % 1000,9 hPa 0,0 l/m 15,9 km/h (3 Bft) W 262 0 min 0,000 mm 0,0 UV-I 23 W/m 0,3 C -5,9 C 24,1 km/h (4 Bft) 91,53 %
17.01.2018 11:14 1,2 C 3,3 C 94 % 1000,9 hPa 0,0 l/m 13,8 km/h (3 Bft) W-SW 254 0 min 0,000 mm 0,0 UV-I 32 W/m 0,3 C -4,8 C 19,3 km/h (3 Bft) 96,23 %
17.01.2018 11:16 1,2 C 3,3 C 94 % 1000,9 hPa 0,0 l/m 11,3 km/h (2 Bft) W-SW 246 0 min 0,000 mm 0,0 UV-I 49 W/m 0,3 C -3,1 C 17,7 km/h (3 Bft) 94,00 %
17.01.2018 11:18 1,2 C 3,3 C 94 % 1001,0 hPa 0,0 l/m 14,8 km/h (3 Bft) W-SW 254 0 min 0,000 mm 0,0 UV-I 73 W/m 0,3 C -5,4 C 27,4 km/h (4 Bft) 94,23 %
17.01.2018 11:20 1,3 C 3,3 C 95 % 1001,1 hPa 0,0 l/m 17,7 km/h (3 Bft) W-SW 248 0 min 0,000 mm 0,0 UV-I 79 W/m 0,6 C -6,9 C 24,1 km/h (4 Bft) 97,44 %
17.01.2018 11:22 1,4 C 3,3 C 94 % 1001,1 hPa 0,2 l/m 19,9 km/h (4 Bft) W 265 0 min 0,000 mm 0,0 UV-I 92 W/m 0,5 C -7,8 C 30,6 km/h (5 Bft) 93,62 %
17.01.2018 11:24 1,6 C 3,3 C 94 % 1001,1 hPa 0,0 l/m 25,2 km/h (4 Bft) W-SW 257 0 min 0,000 mm 0,0 UV-I 79 W/m 0,7 C -9,6 C 51,5 km/h (7 Bft) 95,12 %
17.01.2018 11:26 1,7 C 3,3 C 93 % 1001,2 hPa 0,0 l/m 25,1 km/h (4 Bft) W-SW 248 0 min 0,000 mm 0,0 UV-I 66 W/m 0,7 C -9,5 C 45,1 km/h (6 Bft) 94,92 %
17.01.2018 11:28 1,8 C 3,3 C 92 % 1001,3 hPa 0,0 l/m 25,5 km/h (4 Bft) W-SW 251 0 min 0,000 mm 0,0 UV-I 49 W/m 0,6 C -9,5 C 46,7 km/h (6 Bft) 94,00 %
17.01.2018 11:30 1,9 C 3,3 C 91 % 1001,3 hPa 0,2 l/m 25,9 km/h (4 Bft) W-SW 252 0 min 0,000 mm 0,0 UV-I 64 W/m 0,6 C -9,5 C 45,1 km/h (6 Bft) 95,12 %
17.01.2018 11:32 1,9 C 3,3 C 91 % 1001,3 hPa 0,0 l/m 19,6 km/h (3 Bft) SW 232 0 min 0,000 mm 0,0 UV-I 77 W/m 0,6 C -7,0 C 33,8 km/h (5 Bft) 97,56 %
17.01.2018 11:34 2,0 C 3,3 C 91 % 1001,2 hPa 0,0 l/m 26,6 km/h (4 Bft) SW 221 0 min 0,000 mm 0,0 UV-I 77 W/m 0,7 C -9,6 C 40,2 km/h (6 Bft) 98,00 %
17.01.2018 11:36 2,1 C 3,3 C 90 % 1001,2 hPa 0,0 l/m 24,5 km/h (4 Bft) W-SW 254 0 min 0,000 mm 0,0 UV-I 81 W/m 0,6 C -8,7 C 41,8 km/h (6 Bft) 96,00 %
17.01.2018 11:38 2,1 C 3,3 C 89 % 1001,3 hPa 0,0 l/m 23,5 km/h (4 Bft) W-SW 257 0 min 0,000 mm 0,0 UV-I 67 W/m 0,5 C -8,3 C 32,2 km/h (5 Bft) 97,56 %
17.01.2018 11:40 2,2 C 3,3 C 89 % 1001,5 hPa 0,0 l/m 26,8 km/h (4 Bft) W-SW 252 0 min 0,000 mm 0,0 UV-I 44 W/m 0,6 C -9,3 C 37,0 km/h (5 Bft) 98,00 %
17.01.2018 11:42 2,1 C 3,3 C 89 % 1001,5 hPa 0,0 l/m 19,6 km/h (3 Bft) W-SW 245 0 min 0,000 mm 0,0 UV-I 54 W/m 0,5 C -6,7 C 33,8 km/h (5 Bft) 92,68 %
17.01.2018 11:44 2,1 C 3,3 C 89 % 1001,5 hPa 0,2 l/m 21,7 km/h (4 Bft) W-SW 244 0 min 0,000 mm 0,0 UV-I 77 W/m 0,5 C -7,6 C 38,6 km/h (5 Bft) 92,45 %
17.01.2018 11:46 2,1 C 3,3 C 89 % 1001,5 hPa 0,0 l/m 23,7 km/h (4 Bft) W 260 0 min 0,000 mm 0,0 UV-I 95 W/m 0,5 C -8,4 C 33,8 km/h (5 Bft) 97,56 %
17.01.2018 11:48 2,1 C 3,3 C 89 % 1001,6 hPa 0,0 l/m 23,7 km/h (4 Bft) W-SW 246 0 min 0,000 mm 0,0 UV-I 103 W/m 0,5 C -8,4 C 45,1 km/h (6 Bft) 96,00 %
17.01.2018 11:50 2,2 C 3,3 C 88 % 1001,7 hPa 0,0 l/m 31,0 km/h (5 Bft) W-SW 252 0 min 0,000 mm 0,0 UV-I 117 W/m 0,4 C -10,6 C 53,1 km/h (7 Bft) 98,00 %
17.01.2018 11:52 2,3 C 3,3 C 87 % 1001,7 hPa 0,0 l/m 24,7 km/h (4 Bft) W 274 0 min 0,000 mm 0,0 UV-I 116 W/m 0,4 C -8,5 C 38,6 km/h (5 Bft) 95,74 %
17.01.2018 11:54 2,4 C 3,3 C 87 % 1001,7 hPa 0,2 l/m 25,2 km/h (4 Bft) W-SW 250 0 min 0,000 mm 0,0 UV-I 109 W/m 0,5 C -8,5 C 33,8 km/h (5 Bft) 97,44 %
17.01.2018 11:56 2,4 C 3,3 C 86 % 1001,8 hPa 0,0 l/m 26,7 km/h (4 Bft) W 262 0 min 0,000 mm 0,0 UV-I 93 W/m 0,3 C -9,0 C 43,5 km/h (6 Bft) 98,36 %
17.01.2018 11:58 2,4 C 3,3 C 86 % 1001,8 hPa 0,0 l/m 20,9 km/h (4 Bft) W 275 0 min 0,000 mm 0,0 UV-I 112 W/m 0,3 C -6,9 C 40,2 km/h (6 Bft) 100,00 %
17.01.2018 12:00 2,4 C 3,3 C 86 % 1001,7 hPa 0,0 l/m 30,7 km/h (5 Bft) W-SW 245 0 min 0,051 mm 0,0 UV-I 96 W/m 0,3 C -10,2 C 41,8 km/h (6 Bft) 100,00 %
17.01.2018 12:02 2,5 C 3,3 C 86 % 1001,8 hPa 0,0 l/m 23,6 km/h (4 Bft) W 281 0 min 0,000 mm 0,0 UV-I 104 W/m 0,4 C -7,8 C 33,8 km/h (5 Bft) 100,00 %
17.01.2018 12:04 2,5 C 3,3 C 86 % 1001,7 hPa 0,0 l/m 22,1 km/h (4 Bft) W-SW 255 0 min 0,000 mm 0,0 UV-I 96 W/m 0,4 C -7,3 C 33,8 km/h (5 Bft) 100,00 %
17.01.2018 12:06 2,4 C 3,3 C 86 % 1001,7 hPa 0,0 l/m 21,4 km/h (4 Bft) W-SW 251 0 min 0,000 mm 0,0 UV-I 61 W/m 0,3 C -7,1 C 32,2 km/h (5 Bft) 100,00 %
17.01.2018 12:08 2,4 C 3,3 C 86 % 1001,7 hPa 0,0 l/m 21,0 km/h (4 Bft) W-SW 252 0 min 0,000 mm 0,0 UV-I 58 W/m 0,3 C -7,0 C 32,2 km/h (5 Bft) 97,73 %
17.01.2018 12:10 2,4 C 3,3 C 86 % 1001,7 hPa 0,0 l/m 20,2 km/h (4 Bft) S-SW 209 0 min 0,000 mm 0,0 UV-I 68 W/m 0,3 C -6,6 C 25,7 km/h (4 Bft) 98,00 %
17.01.2018 12:12 2,4 C 3,3 C 86 % 1001,6 hPa 0,0 l/m 16,0 km/h (3 Bft) SW 215 0 min 0,000 mm 0,0 UV-I 116 W/m 0,3 C -4,6 C 25,7 km/h (4 Bft) 100,00 %
17.01.2018 12:14 2,4 C 3,3 C 87 % 1001,7 hPa 0,0 l/m 15,1 km/h (3 Bft) W-SW 252 0 min 0,000 mm 0,0 UV-I 147 W/m 0,5 C -4,1 C 22,5 km/h (4 Bft) 97,56 %
17.01.2018 12:16 2,4 C 3,3 C 88 % 1001,7 hPa 0,0 l/m 18,0 km/h (3 Bft) SW 225 0 min 0,000 mm 0,0 UV-I 184 W/m 0,6 C -5,6 C 29,0 km/h (5 Bft) 100,00 %
17.01.2018 12:18 2,4 C 3,3 C 88 % 1001,7 hPa 0,2 l/m 20,6 km/h (4 Bft) SW 234 2 min 0,000 mm 0,0 UV-I 228 W/m 0,6 C -6,8 C 37,0 km/h (5 Bft) 98,00 %
17.01.2018 12:20 2,5 C 3,3 C 88 % 1001,6 hPa 0,0 l/m 21,6 km/h (4 Bft) SW 225 2 min 0,000 mm 0,5 UV-I 258 W/m 0,7 C -7,1 C 32,2 km/h (5 Bft) 100,00 %
17.01.2018 12:22 2,6 C 3,3 C 87 % 1001,6 hPa 0,0 l/m 17,8 km/h (3 Bft) W-SW 253 2 min 0,000 mm 0,5 UV-I 219 W/m 0,7 C -5,3 C 30,6 km/h (5 Bft) 100,00 %
17.01.2018 12:24 2,7 C 3,3 C 87 % 1001,7 hPa 0,0 l/m 19,2 km/h (3 Bft) SW 234 0 min 0,000 mm 0,1 UV-I 189 W/m 0,8 C -5,8 C 30,6 km/h (5 Bft) 100,00 %
17.01.2018 12:26 2,8 C 3,3 C 86 % 1001,7 hPa 0,0 l/m 18,2 km/h (3 Bft) W 266 2 min 0,000 mm 0,5 UV-I 235 W/m 0,7 C -5,2 C 30,6 km/h (5 Bft) 100,00 %
17.01.2018 12:28 2,8 C 3,3 C 84 % 1001,6 hPa 0,0 l/m 26,0 km/h (4 Bft) W-SW 238 2 min 0,000 mm 0,5 UV-I 231 W/m 0,4 C -8,3 C 38,6 km/h (5 Bft) 100,00 %
17.01.2018 12:30 2,9 C 3,3 C 84 % 1001,7 hPa 0,0 l/m 21,8 km/h (4 Bft) SW 232 0 min 0,000 mm 0,0 UV-I 167 W/m 0,5 C -6,6 C 30,6 km/h (5 Bft) 98,08 %
17.01.2018 12:32 2,9 C 3,3 C 83 % 1001,7 hPa 0,0 l/m 20,9 km/h (4 Bft) W-SW 257 0 min 0,000 mm 0,0 UV-I 158 W/m 0,3 C -6,3 C 29,0 km/h (5 Bft) 100,00 %
17.01.2018 12:34 2,9 C 3,3 C 84 % 1001,8 hPa 0,0 l/m 22,9 km/h (4 Bft) W-SW 249 0 min 0,000 mm 0,0 UV-I 187 W/m 0,5 C -7,0 C 37,0 km/h (5 Bft) 97,87 %
17.01.2018 12:36 2,9 C 3,3 C 83 % 1001,9 hPa 0,0 l/m 20,5 km/h (4 Bft) W-SW 243 0 min 0,000 mm 0,0 UV-I 144 W/m 0,3 C -6,1 C 32,2 km/h (5 Bft) 98,11 %
17.01.2018 12:38 2,9 C 3,3 C 83 % 1001,9 hPa 0,0 l/m 17,0 km/h (3 Bft) W-SW 250 2 min 0,000 mm 0,0 UV-I 206 W/m 0,3 C -4,5 C 24,1 km/h (4 Bft) 100,00 %
17.01.2018 12:40 2,9 C 3,3 C 84 % 1001,9 hPa 0,2 l/m 18,9 km/h (3 Bft) SW 235 0 min 0,000 mm 0,0 UV-I 171 W/m 0,5 C -5,4 C 25,7 km/h (4 Bft) 100,00 %
17.01.2018 12:42 2,9 C 3,3 C 84 % 1001,9 hPa 0,0 l/m 17,3 km/h (3 Bft) SW 230 0 min 0,000 mm 0,0 UV-I 80 W/m 0,5 C -4,7 C 24,1 km/h (4 Bft) 97,56 %
17.01.2018 12:44 2,8 C 3,3 C 85 % 1001,9 hPa 0,0 l/m 17,9 km/h (3 Bft) W-SW 239 0 min 0,000 mm 0,0 UV-I 55 W/m 0,5 C -5,1 C 30,6 km/h (5 Bft) 100,00 %
17.01.2018 12:46 2,7 C 3,3 C 85 % 1002,0 hPa 0,0 l/m 24,9 km/h (4 Bft) SW 223 0 min 0,000 mm 0,0 UV-I 26 W/m 0,4 C -8,0 C 37,0 km/h (5 Bft) 95,45 %
17.01.2018 12:48 2,6 C 3,3 C 85 % 1002,2 hPa 0,0 l/m 25,7 km/h (4 Bft) W-SW 251 0 min 0,000 mm 0,0 UV-I 13 W/m 0,3 C -8,4 C 49,9 km/h (6 Bft) 100,00 %
17.01.2018 12:50 2,2 C 3,3 C 86 % 1002,2 hPa 0,0 l/m 31,3 km/h (5 Bft) W 259 0 min 0,000 mm 0,0 UV-I 9 W/m 0,1 C -10,7 C 48,3 km/h (6 Bft) 100,00 %
17.01.2018 12:52 1,7 C 3,3 C 88 % 1002,3 hPa 0,0 l/m 23,4 km/h (4 Bft) W-SW 258 0 min 0,000 mm 0,0 UV-I 9 W/m -0,1 C -8,8 C 33,8 km/h (5 Bft) 97,87 %
17.01.2018 12:54 1,2 C 3,3 C 90 % 1002,2 hPa 0,0 l/m 20,4 km/h (4 Bft) W 267 0 min 0,000 mm 0,0 UV-I 14 W/m -0,3 C -8,3 C 38,6 km/h (5 Bft) 100,00 %
17.01.2018 12:56 0,9 C 3,3 C 91 % 1002,3 hPa 0,0 l/m 23,8 km/h (4 Bft) W-SW 253 0 min 0,000 mm 0,0 UV-I 21 W/m -0,4 C -10,1 C 33,8 km/h (5 Bft) 91,67 %
17.01.2018 12:58 0,7 C 3,3 C 92 % 1002,2 hPa 0,0 l/m 15,2 km/h (3 Bft) W-SW 255 0 min 0,000 mm 0,0 UV-I 31 W/m -0,4 C -6,3 C 24,1 km/h (4 Bft) 98,57 %
17.01.2018 13:00 0,7 C 3,3 C 93 % 1002,3 hPa 0,0 l/m 16,7 km/h (3 Bft) SW 236 0 min 0,076 mm 0,0 UV-I 76 W/m -0,3 C -7,1 C 25,7 km/h (4 Bft) 93,22 %
17.01.2018 13:02 0,6 C 3,3 C 94 % 1002,3 hPa 0,0 l/m 15,0 km/h (3 Bft) W-SW 257 0 min 0,000 mm 0,0 UV-I 135 W/m -0,3 C -6,3 C 20,9 km/h (4 Bft) 97,56 %
17.01.2018 13:04 0,6 C 3,3 C 94 % 1002,2 hPa 0,0 l/m 12,2 km/h (2 Bft) W-SW 244 0 min 0,000 mm 0,0 UV-I 125 W/m -0,3 C -4,5 C 17,7 km/h (3 Bft) 95,74 %
17.01.2018 13:06 0,5 C 3,3 C 94 % 1002,5 hPa 0,0 l/m 12,4 km/h (3 Bft) W-SW 245 0 min 0,000 mm 0,0 UV-I 103 W/m -0,4 C -4,7 C 16,1 km/h (3 Bft) 98,00 %
17.01.2018 13:08 0,6 C 3,3 C 95 % 1002,3 hPa 0,0 l/m 15,4 km/h (3 Bft) W 275 0 min 0,000 mm 0,0 UV-I 84 W/m -0,1 C -6,5 C 22,5 km/h (4 Bft) 96,00 %
17.01.2018 13:10 0,6 C 3,3 C 95 % 1002,2 hPa 0,0 l/m 15,7 km/h (3 Bft) W-SW 238 0 min 0,000 mm 0,0 UV-I 115 W/m -0,1 C -6,7 C 25,7 km/h (4 Bft) 96,08 %
17.01.2018 13:12 0,6 C 3,3 C 95 % 1002,2 hPa 0,0 l/m 13,7 km/h (3 Bft) W 263 0 min 0,000 mm 0,0 UV-I 140 W/m -0,1 C -5,5 C 22,5 km/h (4 Bft) 97,73 %
17.01.2018 13:14 0,7 C 3,3 C 95 % 1002,1 hPa 0,0 l/m 18,1 km/h (3 Bft) SW 236 0 min 0,000 mm 0,0 UV-I 153 W/m -0,0 C -7,8 C 32,2 km/h (5 Bft) 97,44 %
17.01.2018 13:16 0,8 C 3,3 C 95 % 1002,1 hPa 0,0 l/m 22,0 km/h (4 Bft) W-SW 254 0 min 0,000 mm 0,0 UV-I 181 W/m 0,1 C -9,5 C 35,4 km/h (5 Bft) 94,34 %
17.01.2018 13:18 1,1 C 3,3 C 94 % 1002,1 hPa 0,0 l/m 19,7 km/h (3 Bft) SW 214 0 min 0,000 mm 0,0 UV-I 182 W/m 0,2 C -8,1 C 25,7 km/h (4 Bft) 93,62 %
17.01.2018 13:20 1,2 C 3,3 C 94 % 1002,1 hPa 0,0 l/m 21,2 km/h (4 Bft) W-SW 250 0 min 0,000 mm 0,0 UV-I 181 W/m 0,3 C -8,6 C 38,6 km/h (5 Bft) 97,87 %
17.01.2018 13:22 1,4 C 3,3 C 92 % 1002,1 hPa 0,0 l/m 20,1 km/h (4 Bft) SW 234 0 min 0,000 mm 0,0 UV-I 177 W/m 0,2 C -7,9 C 30,6 km/h (5 Bft) 95,74 %
17.01.2018 13:24 1,7 C 3,3 C 90 % 1002,2 hPa 0,0 l/m 19,6 km/h (3 Bft) NW 306 2 min 0,000 mm 0,0 UV-I 195 W/m 0,2 C -7,3 C 29,0 km/h (5 Bft) 98,00 %
17.01.2018 13:26 1,8 C 3,3 C 88 % 1002,2 hPa 0,0 l/m 19,9 km/h (4 Bft) W-SW 252 2 min 0,000 mm 0,0 UV-I 203 W/m 0,0 C -7,3 C 27,4 km/h (4 Bft) 97,73 %
17.01.2018 13:28 2,0 C 3,3 C 88 % 1002,1 hPa 0,0 l/m 19,3 km/h (3 Bft) W 265 2 min 0,000 mm 0,0 UV-I 228 W/m 0,2 C -6,7 C 32,2 km/h (5 Bft) 96,15 %
17.01.2018 13:30 2,1 C 3,3 C 86 % 1002,2 hPa 0,0 l/m 20,4 km/h (4 Bft) NW 308 2 min 0,000 mm 0,0 UV-I 206 W/m 0,0 C -7,1 C 30,6 km/h (5 Bft) 100,00 %
17.01.2018 13:32 2,1 C 3,3 C 86 % 1002,3 hPa 0,0 l/m 21,0 km/h (4 Bft) W-SW 254 0 min 0,000 mm 0,0 UV-I 117 W/m 0,0 C -7,3 C 32,2 km/h (5 Bft) 100,00 %
17.01.2018 13:34 2,1 C 3,3 C 85 % 1002,4 hPa 0,0 l/m 25,8 km/h (4 Bft) W 264 0 min 0,000 mm 0,0 UV-I 48 W/m -0,2 C -9,1 C 35,4 km/h (5 Bft) 100,00 %
17.01.2018 13:36 2,1 C 3,3 C 86 % 1002,4 hPa 0,0 l/m 22,7 km/h (4 Bft) W-SW 251 0 min 0,000 mm 0,0 UV-I 36 W/m 0,0 C -8,0 C 35,4 km/h (5 Bft) 100,00 %
17.01.2018 13:38 2,0 C 3,3 C 86 % 1002,6 hPa 0,2 l/m 21,3 km/h (4 Bft) W-SW 241 0 min 0,000 mm 0,0 UV-I 53 W/m -0,1 C -7,6 C 35,4 km/h (5 Bft) 100,00 %
17.01.2018 13:40 2,0 C 3,3 C 85 % 1002,5 hPa 0,0 l/m 29,6 km/h (5 Bft) W-SW 258 0 min 0,000 mm 0,0 UV-I 104 W/m -0,3 C -10,5 C 48,3 km/h (6 Bft) 100,00 %
17.01.2018 13:42 2,1 C 3,3 C 86 % 1002,6 hPa 0,0 l/m 21,4 km/h (4 Bft) W-SW 250 0 min 0,000 mm 0,0 UV-I 163 W/m 0,0 C -7,5 C 32,2 km/h (5 Bft) 92,59 %
17.01.2018 13:44 2,1 C 3,3 C 86 % 1002,8 hPa 0,0 l/m 23,8 km/h (4 Bft) W-SW 254 0 min 0,000 mm 0,0 UV-I 145 W/m 0,0 C -8,4 C 43,5 km/h (6 Bft) 98,57 %
17.01.2018 13:46 2,1 C 3,3 C 85 % 1002,7 hPa 0,0 l/m 34,7 km/h (5 Bft) W-SW 238 0 min 0,000 mm 0,0 UV-I 114 W/m -0,2 C -11,7 C 48,3 km/h (6 Bft) 98,00 %
17.01.2018 13:48 2,1 C 3,3 C 85 % 1002,7 hPa 0,2 l/m 28,8 km/h (4 Bft) SW 229 0 min 0,000 mm 0,0 UV-I 98 W/m -0,2 C -10,1 C 51,5 km/h (7 Bft) 97,62 %
17.01.2018 13:50 2,0 C 3,3 C 85 % 1002,8 hPa 0,0 l/m 23,7 km/h (4 Bft) W-SW 253 0 min 0,000 mm 0,0 UV-I 103 W/m -0,3 C -8,5 C 35,4 km/h (5 Bft) 98,00 %
17.01.2018 13:52 1,9 C 3,3 C 86 % 1002,9 hPa 0,0 l/m 22,5 km/h (4 Bft) W 265 0 min 0,000 mm 0,0 UV-I 72 W/m -0,2 C -8,2 C 33,8 km/h (5 Bft) 98,00 %
17.01.2018 13:54 1,7 C 3,3 C 87 % 1003,0 hPa 0,0 l/m 22,3 km/h (4 Bft) W-SW 249 0 min 0,000 mm 0,0 UV-I 51 W/m -0,2 C -8,4 C 37,0 km/h (5 Bft) 100,00 %
17.01.2018 13:56 1,6 C 3,3 C 88 % 1003,0 hPa 0,0 l/m 22,3 km/h (4 Bft) W 272 0 min 0,000 mm 0,0 UV-I 41 W/m -0,2 C -8,5 C 35,4 km/h (5 Bft) 100,00 %
17.01.2018 13:58 1,5 C 3,3 C 89 % 1003,2 hPa 0,0 l/m 19,6 km/h (3 Bft) W-SW 250 0 min 0,000 mm 0,0 UV-I 26 W/m -0,1 C -7,5 C 32,2 km/h (5 Bft) 100,00 %
17.01.2018 14:00 1,3 C 3,3 C 90 % 1003,1 hPa 0,0 l/m 22,9 km/h (4 Bft) W 265 0 min 0,051 mm 0,0 UV-I 34 W/m -0,2 C -9,2 C 32,2 km/h (5 Bft) 100,00 %
17.01.2018 14:02 1,1 C 3,3 C 90 % 1003,0 hPa 0,0 l/m 21,4 km/h (4 Bft) SW 231 0 min 0,000 mm 0,0 UV-I 67 W/m -0,4 C -8,8 C 30,6 km/h (5 Bft) 94,74 %
17.01.2018 14:04 0,9 C 3,3 C 92 % 1003,0 hPa 0,0 l/m 14,7 km/h (3 Bft) W 277 0 min 0,000 mm 0,0 UV-I 91 W/m -0,2 C -5,7 C 20,9 km/h (4 Bft) 98,00 %
17.01.2018 14:06 0,8 C 3,3 C 92 % 1003,0 hPa 0,0 l/m 22,5 km/h (4 Bft) W 259 0 min 0,000 mm 0,0 UV-I 97 W/m -0,3 C -9,7 C 40,2 km/h (6 Bft) 100,00 %
17.01.2018 14:08 0,8 C 3,3 C 92 % 1003,0 hPa 0,0 l/m 25,8 km/h (4 Bft) W 262 0 min 0,000 mm 0,0 UV-I 100 W/m -0,3 C -10,9 C 40,2 km/h (6 Bft) 100,00 %
17.01.2018 14:10 0,8 C 3,3 C 93 % 1003,0 hPa 0,0 l/m 25,2 km/h (4 Bft) SW 235 0 min 0,000 mm 0,0 UV-I 108 W/m -0,2 C -10,7 C 38,6 km/h (5 Bft) 100,00 %
17.01.2018 14:12 0,8 C 3,3 C 93 % 1003,1 hPa 0,0 l/m 22,6 km/h (4 Bft) W-SW 258 0 min 0,000 mm 0,0 UV-I 119 W/m -0,2 C -9,7 C 38,6 km/h (5 Bft) 100,00 %
17.01.2018 14:14 0,8 C 3,3 C 93 % 1003,0 hPa 0,0 l/m 19,7 km/h (3 Bft) W-SW 253 0 min 0,000 mm 0,0 UV-I 138 W/m -0,2 C -8,5 C 27,4 km/h (4 Bft) 100,00 %
17.01.2018 14:16 0,8 C 3,3 C 93 % 1003,0 hPa 0,0 l/m 16,9 km/h (3 Bft) W 261 0 min 0,000 mm 0,0 UV-I 99 W/m -0,2 C -7,1 C 25,7 km/h (4 Bft) 100,00 %
17.01.2018 14:18 0,8 C 3,3 C 93 % 1003,1 hPa 0,0 l/m 14,1 km/h (3 Bft) W 267 0 min 0,000 mm 0,0 UV-I 82 W/m -0,2 C -5,5 C 25,7 km/h (4 Bft) 100,00 %
17.01.2018 14:20 0,8 C 3,3 C 93 % 1003,0 hPa 0,0 l/m 18,8 km/h (3 Bft) W-SW 257 0 min 0,000 mm 0,0 UV-I 84 W/m -0,2 C -8,0 C 29,0 km/h (5 Bft) 94,74 %
17.01.2018 14:22 0,8 C 3,3 C 94 % 1003,1 hPa 0,0 l/m 15,9 km/h (3 Bft) W-SW 249 0 min 0,000 mm 0,0 UV-I 95 W/m -0,1 C -6,5 C 20,9 km/h (4 Bft) 96,43 %
17.01.2018 14:24 0,9 C 3,3 C 94 % 1003,3 hPa 0,0 l/m 16,9 km/h (3 Bft) SW 232 2 min 0,000 mm 0,0 UV-I 157 W/m 0,0 C -6,9 C 24,1 km/h (4 Bft) 100,00 %
17.01.2018 14:26 0,9 C 3,3 C 94 % 1003,3 hPa 0,2 l/m 19,5 km/h (3 Bft) W 263 0 min 0,000 mm 0,0 UV-I 121 W/m 0,0 C -8,2 C 27,4 km/h (4 Bft) 100,00 %
17.01.2018 14:28 1,0 C 3,3 C 94 % 1003,3 hPa 0,0 l/m 13,6 km/h (3 Bft) W 267 0 min 0,000 mm 0,0 UV-I 94 W/m 0,1 C -4,9 C 20,9 km/h (4 Bft) 100,00 %
17.01.2018 14:30 1,0 C 3,3 C 93 % 1003,3 hPa 0,0 l/m 15,2 km/h (3 Bft) W 263 0 min 0,000 mm 0,0 UV-I 88 W/m -0,0 C -5,9 C 25,7 km/h (4 Bft) 100,00 %
17.01.2018 14:32 1,1 C 3,3 C 93 % 1003,3 hPa 0,0 l/m 17,7 km/h (3 Bft) W-SW 252 0 min 0,000 mm 0,0 UV-I 83 W/m 0,1 C -7,1 C 27,4 km/h (4 Bft) 100,00 %
17.01.2018 14:34 1,1 C 3,3 C 93 % 1003,3 hPa 0,0 l/m 15,9 km/h (3 Bft) W-NW 286 0 min 0,000 mm 0,0 UV-I 81 W/m 0,1 C -6,2 C 22,5 km/h (4 Bft) 97,87 %
17.01.2018 14:36 1,2 C 3,3 C 92 % 1003,3 hPa 0,0 l/m 19,5 km/h (3 Bft) W-SW 246 0 min 0,000 mm 0,0 UV-I 83 W/m 0,0 C -7,9 C 25,7 km/h (4 Bft) 97,37 %
17.01.2018 14:38 1,2 C 3,3 C 92 % 1003,3 hPa 0,0 l/m 22,4 km/h (4 Bft) W-SW 254 0 min 0,000 mm 0,0 UV-I 80 W/m 0,0 C -9,1 C 40,2 km/h (6 Bft) 100,00 %
17.01.2018 14:40 1,3 C 3,3 C 91 % 1003,3 hPa 0,0 l/m 20,5 km/h (4 Bft) W 281 0 min 0,000 mm 0,0 UV-I 76 W/m -0,0 C -8,2 C 30,6 km/h (5 Bft) 97,37 %
17.01.2018 14:42 1,4 C 3,3 C 91 % 1003,4 hPa 0,0 l/m 21,9 km/h (4 Bft) W-SW 244 0 min 0,000 mm 0,0 UV-I 80 W/m 0,1 C -8,6 C 32,2 km/h (5 Bft) 100,00 %
17.01.2018 14:44 1,4 C 3,3 C 90 % 1003,3 hPa 0,0 l/m 20,0 km/h (4 Bft) W-SW 252 0 min 0,000 mm 0,0 UV-I 83 W/m -0,1 C -7,8 C 37,0 km/h (5 Bft) 100,00 %
17.01.2018 14:46 1,5 C 3,3 C 89 % 1003,3 hPa 0,0 l/m 24,1 km/h (4 Bft) W-SW 254 0 min 0,000 mm 0,0 UV-I 83 W/m -0,1 C -9,4 C 37,0 km/h (5 Bft) 97,87 %
17.01.2018 14:48 1,5 C 3,3 C 88 % 1003,3 hPa 0,0 l/m 20,1 km/h (4 Bft) SW 230 0 min 0,000 mm 0,0 UV-I 84 W/m -0,3 C -7,7 C 37,0 km/h (5 Bft) 100,00 %
17.01.2018 14:50 1,6 C 3,3 C 88 % 1003,3 hPa 0,0 l/m 20,6 km/h (4 Bft) W 266 0 min 0,000 mm 0,0 UV-I 81 W/m -0,2 C -7,8 C 27,4 km/h (4 Bft) 100,00 %
17.01.2018 14:52 1,6 C 3,3 C 87 % 1003,3 hPa 0,0 l/m 19,5 km/h (3 Bft) W 259 0 min 0,000 mm 0,0 UV-I 71 W/m -0,3 C -7,3 C 24,1 km/h (4 Bft) 97,87 %
17.01.2018 14:54 1,6 C 3,3 C 87 % 1003,4 hPa 0,0 l/m 16,8 km/h (3 Bft) SW 236 0 min 0,000 mm 0,0 UV-I 59 W/m -0,3 C -6,0 C 24,1 km/h (4 Bft) 97,73 %
17.01.2018 14:56 1,6 C 3,3 C 87 % 1003,4 hPa 0,0 l/m 20,1 km/h (4 Bft) W 279 0 min 0,000 mm 0,0 UV-I 54 W/m -0,3 C -7,6 C 45,1 km/h (6 Bft) 100,00 %
17.01.2018 14:58 1,6 C 3,3 C 86 % 1003,5 hPa 0,0 l/m 20,4 km/h (4 Bft) W 278 0 min 0,000 mm 0,0 UV-I 53 W/m -0,5 C -7,7 C 30,6 km/h (5 Bft) 98,21 %
17.01.2018 15:00 1,6 C 3,3 C 87 % 1003,5 hPa 0,0 l/m 16,8 km/h (3 Bft) W-SW 251 0 min 0,051 mm 0,0 UV-I 53 W/m -0,3 C -6,0 C 24,1 km/h (4 Bft) 100,00 %
17.01.2018 15:02 1,6 C 3,3 C 87 % 1003,6 hPa 0,0 l/m 19,1 km/h (3 Bft) W-SW 246 0 min 0,000 mm 0,0 UV-I 53 W/m -0,3 C -7,2 C 30,6 km/h (5 Bft) 96,36 %
17.01.2018 15:04 1,6 C 3,3 C 86 % 1003,5 hPa 0,0 l/m 19,0 km/h (3 Bft) W-SW 257 0 min 0,000 mm 0,0 UV-I 47 W/m -0,5 C -7,1 C 29,0 km/h (5 Bft) 93,62 %
17.01.2018 15:06 1,7 C 3,3 C 85 % 1003,6 hPa 0,0 l/m 21,2 km/h (4 Bft) W-SW 254 0 min 0,000 mm 0,0 UV-I 39 W/m -0,5 C -8,0 C 30,6 km/h (5 Bft) 97,22 %
17.01.2018 15:08 1,7 C 3,3 C 85 % 1003,6 hPa 0,0 l/m 20,8 km/h (4 Bft) W-SW 238 0 min 0,000 mm 0,0 UV-I 30 W/m -0,5 C -7,8 C 35,4 km/h (5 Bft) 96,77 %
17.01.2018 15:10 1,7 C 3,3 C 85 % 1003,6 hPa 0,0 l/m 18,5 km/h (3 Bft) W 261 0 min 0,000 mm 0,0 UV-I 24 W/m -0,5 C -6,7 C 25,7 km/h (4 Bft) 97,87 %
17.01.2018 15:12 1,6 C 3,3 C 86 % 1003,7 hPa 0,0 l/m 18,1 km/h (3 Bft) W-NW 293 0 min 0,000 mm 0,0 UV-I 32 W/m -0,5 C -6,7 C 27,4 km/h (4 Bft) 95,65 %
17.01.2018 15:14 1,4 C 3,3 C 86 % 1003,6 hPa 0,0 l/m 15,9 km/h (3 Bft) W 269 0 min 0,000 mm 0,0 UV-I 45 W/m -0,7 C -5,8 C 20,9 km/h (4 Bft) 98,46 %
17.01.2018 15:16 1,4 C 3,3 C 87 % 1003,6 hPa 0,0 l/m 19,0 km/h (3 Bft) W-SW 257 0 min 0,000 mm 0,0 UV-I 48 W/m -0,5 C -7,4 C 29,0 km/h (5 Bft) 97,56 %
17.01.2018 15:18 1,3 C 3,3 C 87 % 1003,7 hPa 0,0 l/m 21,7 km/h (4 Bft) W 273 0 min 0,000 mm 0,0 UV-I 33 W/m -0,6 C -8,7 C 37,0 km/h (5 Bft) 94,64 %
17.01.2018 15:20 1,3 C 3,3 C 87 % 1003,8 hPa 0,0 l/m 16,8 km/h (3 Bft) W-SW 257 0 min 0,000 mm 0,0 UV-I 18 W/m -0,6 C -6,4 C 29,0 km/h (5 Bft) 95,74 %
17.01.2018 15:22 1,3 C 3,3 C 87 % 1003,8 hPa 0,0 l/m 21,5 km/h (4 Bft) W 262 0 min 0,000 mm 0,0 UV-I 17 W/m -0,6 C -8,6 C 30,6 km/h (5 Bft) 93,62 %
17.01.2018 15:24 1,3 C 3,3 C 87 % 1003,8 hPa 0,0 l/m 18,5 km/h (3 Bft) W 262 0 min 0,000 mm 0,0 UV-I 34 W/m -0,6 C -7,3 C 30,6 km/h (5 Bft) 95,74 %
17.01.2018 15:26 1,3 C 3,3 C 87 % 1003,8 hPa 0,0 l/m 17,8 km/h (3 Bft) W-SW 257 0 min 0,000 mm 0,0 UV-I 47 W/m -0,6 C -6,9 C 27,4 km/h (4 Bft) 95,74 %
17.01.2018 15:28 1,3 C 3,3 C 87 % 1003,8 hPa 0,0 l/m 19,2 km/h (3 Bft) W 274 0 min 0,000 mm 0,0 UV-I 46 W/m -0,6 C -7,6 C 27,4 km/h (4 Bft) 94,74 %
17.01.2018 15:30 1,2 C 3,3 C 87 % 1003,9 hPa 0,0 l/m 20,2 km/h (4 Bft) W 275 0 min 0,000 mm 0,0 UV-I 38 W/m -0,7 C -8,2 C 35,4 km/h (5 Bft) 94,64 %
17.01.2018 15:32 1,3 C 3,3 C 87 % 1004,0 hPa 0,0 l/m 17,7 km/h (3 Bft) W-NW 292 0 min 0,000 mm 0,0 UV-I 42 W/m -0,6 C -6,9 C 27,4 km/h (4 Bft) 94,29 %
17.01.2018 15:34 1,3 C 3,3 C 87 % 1004,0 hPa 0,0 l/m 19,9 km/h (4 Bft) W 259 0 min 0,000 mm 0,0 UV-I 54 W/m -0,6 C -7,9 C 32,2 km/h (5 Bft) 94,64 %
17.01.2018 15:36 1,3 C 3,3 C 86 % 1004,0 hPa 0,0 l/m 16,5 km/h (3 Bft) SW 233 0 min 0,000 mm 0,0 UV-I 58 W/m -0,8 C -6,2 C 25,7 km/h (4 Bft) 95,74 %
17.01.2018 15:38 1,3 C 3,3 C 86 % 1004,1 hPa 0,0 l/m 17,5 km/h (3 Bft) W-SW 245 0 min 0,000 mm 0,0 UV-I 59 W/m -0,8 C -6,8 C 27,4 km/h (4 Bft) 93,62 %
17.01.2018 15:40 1,3 C 3,3 C 86 % 1004,1 hPa 0,0 l/m 16,7 km/h (3 Bft) W 267 0 min 0,000 mm 0,0 UV-I 63 W/m -0,8 C -6,3 C 25,7 km/h (4 Bft) 96,00 %
17.01.2018 15:42 1,3 C 3,3 C 86 % 1004,1 hPa 0,0 l/m 22,4 km/h (4 Bft) W-SW 244 0 min 0,000 mm 0,0 UV-I 63 W/m -0,8 C -9,0 C 48,3 km/h (6 Bft) 97,56 %
17.01.2018 15:44 1,4 C 3,3 C 85 % 1004,2 hPa 0,0 l/m 20,0 km/h (4 Bft) W-SW 239 0 min 0,000 mm 0,0 UV-I 56 W/m -0,8 C -7,8 C 41,8 km/h (6 Bft) 98,11 %
17.01.2018 15:46 1,4 C 3,3 C 85 % 1004,1 hPa 0,0 l/m 20,5 km/h (4 Bft) W-SW 257 0 min 0,000 mm 0,0 UV-I 38 W/m -0,8 C -8,0 C 37,0 km/h (5 Bft) 95,24 %
17.01.2018 15:48 1,5 C 3,3 C 84 % 1004,0 hPa 0,0 l/m 22,5 km/h (4 Bft) W 259 0 min 0,000 mm 0,0 UV-I 32 W/m -0,9 C -8,7 C 35,4 km/h (5 Bft) 98,08 %
17.01.2018 15:50 1,6 C 3,3 C 83 % 1004,0 hPa 0,0 l/m 22,9 km/h (4 Bft) W-SW 254 0 min 0,000 mm 0,0 UV-I 33 W/m -1,0 C -8,8 C 29,0 km/h (5 Bft) 97,44 %
17.01.2018 15:52 1,6 C 3,3 C 82 % 1004,0 hPa 0,0 l/m 19,7 km/h (3 Bft) W-SW 248 0 min 0,000 mm 0,0 UV-I 35 W/m -1,1 C -7,4 C 27,4 km/h (4 Bft) 97,87 %
17.01.2018 15:54 1,6 C 3,3 C 82 % 1004,1 hPa 0,0 l/m 22,5 km/h (4 Bft) SW 217 0 min 0,000 mm 0,0 UV-I 39 W/m -1,1 C -8,6 C 35,4 km/h (5 Bft) 98,00 %
17.01.2018 15:56 1,7 C 3,3 C 81 % 1004,2 hPa 0,0 l/m 19,6 km/h (3 Bft) W 263 2 min 0,000 mm 0,0 UV-I 52 W/m -1,2 C -7,3 C 32,2 km/h (5 Bft) 94,74 %
17.01.2018 15:58 1,7 C 3,3 C 80 % 1004,2 hPa 0,0 l/m 22,3 km/h (4 Bft) W 281 2 min 0,000 mm 0,0 UV-I 56 W/m -1,4 C -8,4 C 29,0 km/h (5 Bft) 96,61 %
17.01.2018 16:00 1,8 C 3,3 C 80 % 1004,2 hPa 0,0 l/m 17,9 km/h (3 Bft) W-SW 255 2 min 0,000 mm 0,0 UV-I 53 W/m -1,3 C -6,3 C 27,4 km/h (4 Bft) 96,55 %
17.01.2018 16:02 1,7 C 3,3 C 81 % 1004,3 hPa 0,0 l/m 14,9 km/h (3 Bft) W 275 2 min 0,025 mm 0,0 UV-I 53 W/m -1,2 C -4,9 C 20,9 km/h (4 Bft) 98,21 %
17.01.2018 16:04 1,7 C 3,3 C 81 % 1004,3 hPa 0,0 l/m 18,5 km/h (3 Bft) SW 221 2 min 0,000 mm 0,0 UV-I 51 W/m -1,2 C -6,7 C 25,7 km/h (4 Bft) 95,74 %
17.01.2018 16:06 1,7 C 3,3 C 80 % 1004,3 hPa 0,0 l/m 20,2 km/h (4 Bft) W-SW 242 2 min 0,000 mm 0,0 UV-I 49 W/m -1,4 C -7,5 C 30,6 km/h (5 Bft) 95,74 %
17.01.2018 16:08 1,8 C 3,3 C 79 % 1004,3 hPa 0,0 l/m 24,5 km/h (4 Bft) W-SW 252 2 min 0,000 mm 0,0 UV-I 38 W/m -1,4 C -9,1 C 40,2 km/h (6 Bft) 100,00 %
17.01.2018 16:10 1,8 C 3,3 C 79 % 1004,4 hPa 0,2 l/m 25,8 km/h (4 Bft) W-SW 249 0 min 0,000 mm 0,0 UV-I 26 W/m -1,4 C -9,6 C 43,5 km/h (6 Bft) 98,11 %
17.01.2018 16:12 1,8 C 3,3 C 79 % 1004,5 hPa 0,0 l/m 22,1 km/h (4 Bft) W-SW 255 0 min 0,000 mm 0,0 UV-I 23 W/m -1,4 C -8,2 C 30,6 km/h (5 Bft) 97,56 %
17.01.2018 16:14 1,8 C 3,3 C 79 % 1004,5 hPa 0,0 l/m 30,4 km/h (5 Bft) W-SW 242 0 min 0,000 mm 0,0 UV-I 22 W/m -1,4 C -11,0 C 48,3 km/h (6 Bft) 96,23 %
17.01.2018 16:16 1,8 C 3,3 C 79 % 1004,4 hPa 0,0 l/m 27,7 km/h (4 Bft) W 268 0 min 0,000 mm 0,0 UV-I 20 W/m -1,4 C -10,2 C 45,1 km/h (6 Bft) 97,22 %
17.01.2018 16:18 1,8 C 3,3 C 80 % 1004,5 hPa 0,0 l/m 25,1 km/h (4 Bft) W-SW 250 0 min 0,000 mm 0,0 UV-I 15 W/m -1,3 C -9,3 C 45,1 km/h (6 Bft) 97,87 %
17.01.2018 16:20 1,7 C 3,3 C 80 % 1004,4 hPa 0,0 l/m 24,9 km/h (4 Bft) W 263 0 min 0,000 mm 0,0 UV-I 12 W/m -1,4 C -9,4 C 35,4 km/h (5 Bft) 95,74 %
17.01.2018 16:22 1,7 C 3,3 C 80 % 1004,5 hPa 0,0 l/m 23,2 km/h (4 Bft) W-SW 237 0 min 0,000 mm 0,0 UV-I 9 W/m -1,4 C -8,8 C 37,0 km/h (5 Bft) 97,87 %
17.01.2018 16:24 1,7 C 3,3 C 80 % 1004,5 hPa 0,0 l/m 21,3 km/h (4 Bft) W 273 0 min 0,000 mm 0,0 UV-I 6 W/m -1,4 C -8,0 C 32,2 km/h (5 Bft) 98,00 %
17.01.2018 16:26 1,7 C 3,3 C 80 % 1004,5 hPa 0,0 l/m 20,4 km/h (4 Bft) W-SW 253 0 min 0,000 mm 0,0 UV-I 5 W/m -1,4 C -7,6 C 29,0 km/h (5 Bft) 96,00 %
17.01.2018 16:28 1,7 C 3,3 C 81 % 1004,9 hPa 0,0 l/m 15,9 km/h (3 Bft) W 273 0 min 0,000 mm 0,0 UV-I 4 W/m -1,2 C -5,4 C 27,4 km/h (4 Bft) 93,18 %
17.01.2018 16:30 1,6 C 3,3 C 81 % 1005,1 hPa 0,0 l/m 7,6 km/h (2 Bft) N-NW 341 0 min 0,000 mm 0,0 UV-I 0 W/m -1,3 C 0,4 C 24,1 km/h (4 Bft) 95,12 %
17.01.2018 16:32 1,5 C 3,3 C 82 % 1005,1 hPa 0,0 l/m 10,8 km/h (2 Bft) W-NW 292 0 min 0,000 mm 0,0 UV-I 0 W/m -1,2 C -2,4 C 22,5 km/h (4 Bft) 96,08 %
17.01.2018 16:34 1,1 C 3,3 C 85 % 1005,1 hPa 0,0 l/m 10,6 km/h (2 Bft) W-NW 294 0 min 0,000 mm 0,0 UV-I 0 W/m -1,1 C -2,7 C 17,7 km/h (3 Bft) 96,23 %
17.01.2018 16:36 0,8 C 3,3 C 86 % 1005,2 hPa 0,0 l/m 16,8 km/h (3 Bft) N-NO 20 0 min 0,000 mm 0,0 UV-I 0 W/m -1,3 C -7,0 C 33,8 km/h (5 Bft) 100,00 %
17.01.2018 16:38 0,6 C 3,3 C 88 % 1005,2 hPa 0,0 l/m 18,6 km/h (3 Bft) W 260 0 min 0,000 mm 0,0 UV-I 0 W/m -1,2 C -8,2 C 40,2 km/h (6 Bft) 98,39 %
17.01.2018 16:40 0,6 C 3,3 C 89 % 1005,4 hPa 0,0 l/m 17,6 km/h (3 Bft) W-SW 255 0 min 0,000 mm 0,0 UV-I 0 W/m -1,0 C -7,7 C 30,6 km/h (5 Bft) 94,64 %
17.01.2018 16:42 0,6 C 3,3 C 89 % 1005,5 hPa 0,0 l/m 22,9 km/h (4 Bft) W 271 0 min 0,000 mm 0,0 UV-I 3 W/m -1,0 C -10,1 C 33,8 km/h (5 Bft) 100,00 %
17.01.2018 16:44 0,6 C 3,3 C 90 % 1005,5 hPa 0,0 l/m 23,8 km/h (4 Bft) W-NW 290 0 min 0,000 mm 0,0 UV-I 5 W/m -0,8 C -10,5 C 38,6 km/h (5 Bft) 100,00 %
17.01.2018 16:46 0,7 C 3,3 C 90 % 1005,6 hPa 0,0 l/m 26,1 km/h (4 Bft) W-SW 239 0 min 0,000 mm 0,0 UV-I 0 W/m -0,7 C -11,2 C 40,2 km/h (6 Bft) 100,00 %
17.01.2018 16:48 0,6 C 3,3 C 90 % 1005,6 hPa 0,0 l/m 26,2 km/h (4 Bft) W-SW 257 0 min 0,000 mm 0,0 UV-I 0 W/m -0,8 C -11,3 C 48,3 km/h (6 Bft) 100,00 %
17.01.2018 16:50 0,5 C 3,3 C 91 % 1005,9 hPa 0,0 l/m 25,7 km/h (4 Bft) W 267 0 min 0,000 mm 0,0 UV-I 0 W/m -0,8 C -11,3 C 41,8 km/h (6 Bft) 100,00 %
17.01.2018 16:52 0,4 C 3,3 C 92 % 1005,8 hPa 0,0 l/m 29,5 km/h (5 Bft) SW 230 0 min 0,000 mm 0,0 UV-I 0 W/m -0,7 C -12,7 C 46,7 km/h (6 Bft) 98,11 %
17.01.2018 16:54 0,3 C 3,3 C 92 % 1005,9 hPa 0,0 l/m 27,9 km/h (4 Bft) S-SW 202 0 min 0,000 mm 0,0 UV-I 0 W/m -0,8 C -12,3 C 45,1 km/h (6 Bft) 97,22 %
17.01.2018 16:56 0,2 C 3,3 C 93 % 1005,9 hPa 0,0 l/m 30,7 km/h (5 Bft) W-NW 295 0 min 0,000 mm 0,0 UV-I 0 W/m -0,8 C -13,3 C 45,1 km/h (6 Bft) 98,00 %
17.01.2018 16:58 0,1 C 3,3 C 93 % 1006,0 hPa 0,0 l/m 35,9 km/h (5 Bft) W-SW 257 0 min 0,000 mm 0,0 UV-I 0 W/m -0,9 C -14,9 C 54,7 km/h (7 Bft) 98,00 %
17.01.2018 17:00 0,0 C 3,3 C 94 % 1006,2 hPa 0,0 l/m 24,9 km/h (4 Bft) W-SW 248 0 min 0,000 mm 0,0 UV-I 0 W/m -0,8 C -11,7 C 48,3 km/h (6 Bft) 98,00 %
17.01.2018 17:02 -0,1 C 3,3 C 94 % 1006,1 hPa 0,0 l/m 26,6 km/h (4 Bft) W-SW 252 0 min 0,026 mm 0,0 UV-I 0 W/m -0,9 C -12,4 C 41,8 km/h (6 Bft) 100,00 %
17.01.2018 17:04 -0,1 C 3,3 C 94 % 1006,1 hPa 0,0 l/m 19,1 km/h (3 Bft) W 263 0 min 0,000 mm 0,0 UV-I 0 W/m -0,9 C -9,3 C 32,2 km/h (5 Bft) 100,00 %
17.01.2018 17:06 -0,2 C 3,3 C 94 % 1005,9 hPa 0,0 l/m 23,9 km/h (4 Bft) W-SW 248 0 min 0,000 mm 0,0 UV-I 0 W/m -1,0 C -11,6 C 43,5 km/h (6 Bft) 100,00 %
17.01.2018 17:08 -0,2 C 3,3 C 94 % 1006,0 hPa 0,0 l/m 19,2 km/h (3 Bft) W-SW 250 0 min 0,000 mm 0,0 UV-I 0 W/m -1,0 C -9,5 C 33,8 km/h (5 Bft) 100,00 %
17.01.2018 17:10 -0,3 C 3,3 C 94 % 1006,0 hPa 0,0 l/m 13,6 km/h (3 Bft) W-SW 244 0 min 0,000 mm 0,0 UV-I 0 W/m -1,1 C -6,5 C 22,5 km/h (4 Bft) 100,00 %
17.01.2018 17:12 -0,3 C 3,3 C 95 % 1005,9 hPa 0,0 l/m 18,1 km/h (3 Bft) W 269 0 min 0,000 mm 0,0 UV-I 0 W/m -1,0 C -9,1 C 27,4 km/h (4 Bft) 97,14 %
17.01.2018 17:14 -0,3 C 3,3 C 95 % 1006,0 hPa 0,0 l/m 16,5 km/h (3 Bft) W 270 0 min 0,000 mm 0,0 UV-I 0 W/m -1,0 C -8,2 C 27,4 km/h (4 Bft) 96,61 %
17.01.2018 17:16 -0,3 C 3,3 C 94 % 1006,0 hPa 0,0 l/m 18,8 km/h (3 Bft) W 273 0 min 0,000 mm 0,0 UV-I 0 W/m -1,1 C -9,4 C 25,7 km/h (4 Bft) 97,73 %
17.01.2018 17:18 -0,3 C 3,3 C 95 % 1006,0 hPa 0,0 l/m 14,8 km/h (3 Bft) W-SW 237 0 min 0,000 mm 0,0 UV-I 0 W/m -1,0 C -7,2 C 25,7 km/h (4 Bft) 97,56 %
17.01.2018 17:20 -0,3 C 3,3 C 95 % 1006,0 hPa 0,0 l/m 17,8 km/h (3 Bft) W 271 0 min 0,000 mm 0,0 UV-I 0 W/m -1,0 C -8,9 C 29,0 km/h (5 Bft) 96,43 %
17.01.2018 17:22 -0,3 C 3,3 C 94 % 1006,1 hPa 0,0 l/m 15,6 km/h (3 Bft) W 279 0 min 0,000 mm 0,0 UV-I 0 W/m -1,1 C -7,7 C 24,1 km/h (4 Bft) 97,56 %
17.01.2018 17:24 -0,3 C 3,3 C 94 % 1006,1 hPa 0,0 l/m 17,4 km/h (3 Bft) W 276 0 min 0,000 mm 0,0 UV-I 0 W/m -1,1 C -8,7 C 30,6 km/h (5 Bft) 96,00 %
17.01.2018 17:26 -0,3 C 3,3 C 94 % 1006,1 hPa 0,0 l/m 19,2 km/h (3 Bft) W-SW 248 0 min 0,000 mm 0,0 UV-I 0 W/m -1,1 C -9,6 C 29,0 km/h (5 Bft) 95,74 %
17.01.2018 17:28 -0,2 C 3,3 C 94 % 1006,1 hPa 0,0 l/m 18,7 km/h (3 Bft) W 260 0 min 0,000 mm 0,0 UV-I 0 W/m -1,0 C -9,3 C 25,7 km/h (4 Bft) 97,87 %
17.01.2018 17:30 -0,1 C 3,3 C 93 % 1006,1 hPa 0,0 l/m 15,5 km/h (3 Bft) W 268 0 min 0,000 mm 0,0 UV-I 0 W/m -1,1 C -7,4 C 22,5 km/h (4 Bft) 95,45 %
17.01.2018 17:32 -0,1 C 3,3 C 93 % 1006,1 hPa 0,0 l/m 16,2 km/h (3 Bft) W 261 0 min 0,000 mm 0,0 UV-I 0 W/m -1,1 C -7,8 C 20,9 km/h (4 Bft) 96,00 %
17.01.2018 17:34 -0,1 C 3,3 C 93 % 1006,2 hPa 0,0 l/m 13,6 km/h (3 Bft) W-SW 247 0 min 0,000 mm 0,0 UV-I 0 W/m -1,1 C -6,2 C 19,3 km/h (3 Bft) 91,67 %
17.01.2018 17:36 -0,1 C 3,3 C 93 % 1006,2 hPa 0,0 l/m 14,3 km/h (3 Bft) W-SW 255 0 min 0,000 mm 0,0 UV-I 0 W/m -1,1 C -6,7 C 22,5 km/h (4 Bft) 98,04 %
17.01.2018 17:38 0,0 C 3,3 C 93 % 1006,2 hPa 0,0 l/m 16,6 km/h (3 Bft) W 269 0 min 0,000 mm 0,0 UV-I 0 W/m -1,0 C -7,9 C 27,4 km/h (4 Bft) 96,00 %
17.01.2018 17:40 0,0 C 3,3 C 93 % 1006,3 hPa 0,0 l/m 14,7 km/h (3 Bft) W-SW 254 0 min 0,000 mm 0,0 UV-I 0 W/m -1,0 C -6,8 C 27,4 km/h (4 Bft) 95,74 %
17.01.2018 17:42 0,1 C 3,3 C 92 % 1006,3 hPa 0,0 l/m 18,2 km/h (3 Bft) SW 233 0 min 0,000 mm 0,0 UV-I 0 W/m -1,0 C -8,6 C 27,4 km/h (4 Bft) 95,12 %
17.01.2018 17:44 0,2 C 3,3 C 92 % 1006,3 hPa 0,0 l/m 19,0 km/h (3 Bft) W-SW 257 0 min 0,000 mm 0,0 UV-I 0 W/m -0,9 C -8,9 C 29,0 km/h (5 Bft) 98,31 %
17.01.2018 17:46 0,3 C 3,3 C 92 % 1006,4 hPa 0,0 l/m 15,8 km/h (3 Bft) W-SW 253 0 min 0,000 mm 0,0 UV-I 0 W/m -0,8 C -7,1 C 27,4 km/h (4 Bft) 97,56 %
17.01.2018 17:48 0,3 C 3,3 C 91 % 1006,3 hPa 0,0 l/m 16,1 km/h (3 Bft) W-SW 257 0 min 0,000 mm 0,0 UV-I 0 W/m -1,0 C -7,3 C 24,1 km/h (4 Bft) 100,00 %
17.01.2018 17:50 0,3 C 3,3 C 91 % 1006,3 hPa 0,0 l/m 19,4 km/h (3 Bft) W-SW 252 0 min 0,000 mm 0,0 UV-I 0 W/m -1,0 C -9,0 C 27,4 km/h (4 Bft) 100,00 %
17.01.2018 17:52 0,4 C 3,3 C 91 % 1006,4 hPa 0,0 l/m 21,4 km/h (4 Bft) W 265 0 min 0,000 mm 0,0 UV-I 0 W/m -0,9 C -9,7 C 30,6 km/h (5 Bft) 100,00 %
17.01.2018 17:54 0,4 C 3,3 C 90 % 1006,4 hPa 0,0 l/m 17,9 km/h (3 Bft) W-SW 242 0 min 0,000 mm 0,0 UV-I 0 W/m -1,0 C -8,1 C 25,7 km/h (4 Bft) 100,00 %
17.01.2018 17:56 0,6 C 3,3 C 89 % 1006,3 hPa 0,0 l/m 17,4 km/h (3 Bft) W-SW 252 0 min 0,000 mm 0,0 UV-I 0 W/m -1,0 C -7,6 C 24,1 km/h (4 Bft) 100,00 %
17.01.2018 17:58 0,6 C 3,3 C 89 % 1006,4 hPa 0,0 l/m 24,1 km/h (4 Bft) SW 236 0 min 0,000 mm 0,0 UV-I 0 W/m -1,0 C -10,6 C 35,4 km/h (5 Bft) 100,00 %
17.01.2018 18:00 0,7 C 3,3 C 88 % 1006,4 hPa 0,0 l/m 20,8 km/h (4 Bft) W-NW 296 0 min 0,000 mm 0,0 UV-I 0 W/m -1,1 C -9,1 C 35,4 km/h (5 Bft) 100,00 %
17.01.2018 18:02 0,7 C 3,3 C 88 % 1006,5 hPa 0,0 l/m 20,8 km/h (4 Bft) W-SW 254 0 min 0,000 mm 0,0 UV-I 0 W/m -1,1 C -9,1 C 30,6 km/h (5 Bft) 97,37 %
17.01.2018 18:04 0,7 C 3,3 C 88 % 1006,5 hPa 0,0 l/m 19,2 km/h (3 Bft) W-SW 252 0 min 0,000 mm 0,0 UV-I 0 W/m -1,1 C -8,4 C 32,2 km/h (5 Bft) 97,62 %
17.01.2018 18:06 0,6 C 3,3 C 87 % 1006,5 hPa 0,0 l/m 16,8 km/h (3 Bft) W 265 0 min 0,000 mm 0,0 UV-I 0 W/m -1,3 C -7,3 C 30,6 km/h (5 Bft) 100,00 %
17.01.2018 18:08 0,6 C 3,3 C 88 % 1006,5 hPa 0,0 l/m 13,8 km/h (3 Bft) W-SW 238 0 min 0,000 mm 0,0 UV-I 0 W/m -1,2 C -5,5 C 17,7 km/h (3 Bft) 97,44 %
17.01.2018 18:10 0,5 C 3,3 C 88 % 1006,5 hPa 0,0 l/m 16,5 km/h (3 Bft) W-SW 248 0 min 0,000 mm 0,0 UV-I 0 W/m -1,3 C -7,2 C 24,1 km/h (4 Bft) 96,23 %
17.01.2018 18:12 0,5 C 3,3 C 88 % 1006,5 hPa 0,0 l/m 17,5 km/h (3 Bft) W-SW 241 0 min 0,000 mm 0,0 UV-I 0 W/m -1,3 C -7,8 C 25,7 km/h (4 Bft) 97,73 %
17.01.2018 18:14 0,5 C 3,3 C 88 % 1006,5 hPa 0,0 l/m 16,3 km/h (3 Bft) W-SW 242 0 min 0,000 mm 0,0 UV-I 0 W/m -1,3 C -7,1 C 22,5 km/h (4 Bft) 100,00 %
17.01.2018 18:16 0,5 C 3,3 C 87 % 1006,4 hPa 0,0 l/m 18,9 km/h (3 Bft) W 267 0 min 0,000 mm 0,0 UV-I 0 W/m -1,4 C -8,5 C 29,0 km/h (5 Bft) 100,00 %
17.01.2018 18:18 0,5 C 3,3 C 87 % 1006,4 hPa 0,0 l/m 19,9 km/h (4 Bft) W 260 0 min 0,000 mm 0,0 UV-I 0 W/m -1,4 C -8,9 C 32,2 km/h (5 Bft) 100,00 %
17.01.2018 18:20 0,6 C 3,3 C 87 % 1006,3 hPa 0,0 l/m 16,2 km/h (3 Bft) W-SW 245 0 min 0,000 mm 0,0 UV-I 0 W/m -1,3 C -6,9 C 24,1 km/h (4 Bft) 100,00 %
17.01.2018 18:22 0,6 C 3,3 C 87 % 1006,3 hPa 0,0 l/m 18,7 km/h (3 Bft) W-SW 238 0 min 0,000 mm 0,0 UV-I 0 W/m -1,3 C -8,2 C 25,7 km/h (4 Bft) 100,00 %
17.01.2018 18:24 0,6 C 3,3 C 86 % 1006,2 hPa 0,0 l/m 20,7 km/h (4 Bft) W 259 0 min 0,000 mm 0,0 UV-I 0 W/m -1,5 C -9,2 C 27,4 km/h (4 Bft) 100,00 %
17.01.2018 18:26 0,6 C 3,3 C 86 % 1006,2 hPa 0,0 l/m 13,2 km/h (3 Bft) W-SW 242 0 min 0,000 mm 0,0 UV-I 0 W/m -1,5 C -5,1 C 19,3 km/h (3 Bft) 100,00 %
17.01.2018 18:28 0,6 C 3,3 C 86 % 1006,2 hPa 0,0 l/m 13,9 km/h (3 Bft) W-SW 249 0 min 0,000 mm 0,0 UV-I 0 W/m -1,5 C -5,6 C 19,3 km/h (3 Bft) 98,11 %
17.01.2018 18:30 0,5 C 3,3 C 86 % 1006,3 hPa 0,0 l/m 15,1 km/h (3 Bft) W-SW 238 0 min 0,000 mm 0,0 UV-I 0 W/m -1,6 C -6,4 C 22,5 km/h (4 Bft) 97,56 %
17.01.2018 18:32 0,6 C 3,3 C 86 % 1006,3 hPa 0,0 l/m 13,9 km/h (3 Bft) SW 233 0 min 0,000 mm 0,0 UV-I 0 W/m -1,5 C -5,6 C 22,5 km/h (4 Bft) 100,00 %
17.01.2018 18:34 0,6 C 3,3 C 86 % 1006,4 hPa 0,0 l/m 16,9 km/h (3 Bft) W-SW 240 0 min 0,000 mm 0,0 UV-I 0 W/m -1,5 C -7,3 C 29,0 km/h (5 Bft) 100,00 %
17.01.2018 18:36 0,6 C 3,3 C 85 % 1006,3 hPa 0,0 l/m 16,6 km/h (3 Bft) W-SW 240 0 min 0,000 mm 0,0 UV-I 0 W/m -1,6 C -7,2 C 22,5 km/h (4 Bft) 100,00 %
17.01.2018 18:38 0,7 C 3,3 C 85 % 1006,3 hPa 0,0 l/m 24,4 km/h (4 Bft) W-SW 250 0 min 0,000 mm 0,0 UV-I 0 W/m -1,5 C -10,5 C 37,0 km/h (5 Bft) 100,00 %
17.01.2018 18:40 0,8 C 3,3 C 84 % 1006,3 hPa 0,0 l/m 22,5 km/h (4 Bft) S-SW 196 0 min 0,000 mm 0,0 UV-I 0 W/m -1,6 C -9,7 C 33,8 km/h (5 Bft) 100,00 %
17.01.2018 18:42 0,8 C 3,3 C 84 % 1006,4 hPa 0,0 l/m 23,3 km/h (4 Bft) W 271 0 min 0,000 mm 0,0 UV-I 0 W/m -1,6 C -10,0 C 37,0 km/h (5 Bft) 98,00 %
17.01.2018 18:44 0,9 C 3,3 C 84 % 1006,4 hPa 0,0 l/m 22,1 km/h (4 Bft) W-NW 284 0 min 0,000 mm 0,0 UV-I 0 W/m -1,5 C -9,4 C 32,2 km/h (5 Bft) 95,74 %
17.01.2018 18:46 0,9 C 3,3 C 84 % 1006,3 hPa 0,0 l/m 25,7 km/h (4 Bft) W 262 0 min 0,000 mm 0,0 UV-I 0 W/m -1,5 C -10,7 C 37,0 km/h (5 Bft) 97,87 %
17.01.2018 18:48 1,0 C 3,3 C 84 % 1006,4 hPa 0,0 l/m 26,7 km/h (4 Bft) W 273 0 min 0,000 mm 0,0 UV-I 0 W/m -1,4 C -11,0 C 37,0 km/h (5 Bft) 100,00 %
17.01.2018 18:50 1,0 C 3,3 C 84 % 1006,6 hPa 0,0 l/m 21,1 km/h (4 Bft) W 266 0 min 0,000 mm 0,0 UV-I 0 W/m -1,4 C -8,8 C 32,2 km/h (5 Bft) 100,00 %
17.01.2018 18:52 0,9 C 3,3 C 85 % 1006,6 hPa 0,0 l/m 31,1 km/h (5 Bft) W-SW 252 0 min 0,000 mm 0,0 UV-I 0 W/m -1,3 C -12,5 C 56,3 km/h (7 Bft) 100,00 %
17.01.2018 18:54 0,9 C 3,3 C 86 % 1006,7 hPa 0,0 l/m 31,5 km/h (5 Bft) W-SW 257 0 min 0,000 mm 0,0 UV-I 0 W/m -1,2 C -12,6 C 51,5 km/h (7 Bft) 98,11 %
17.01.2018 18:56 0,8 C 3,3 C 86 % 1006,7 hPa 0,0 l/m 29,7 km/h (5 Bft) W-SW 253 0 min 0,000 mm 0,0 UV-I 0 W/m -1,3 C -12,2 C 41,8 km/h (6 Bft) 100,00 %
17.01.2018 18:58 0,7 C 3,3 C 88 % 1006,6 hPa 0,0 l/m 16,9 km/h (3 Bft) W-NW 284 0 min 0,000 mm 0,0 UV-I 0 W/m -1,1 C -7,2 C 29,0 km/h (5 Bft) 98,21 %
17.01.2018 19:00 0,6 C 3,3 C 88 % 1006,4 hPa 0,0 l/m 15,3 km/h (3 Bft) W 261 0 min 0,025 mm 0,0 UV-I 0 W/m -1,2 C -6,4 C 32,2 km/h (5 Bft) 97,37 %
17.01.2018 19:02 0,6 C 3,3 C 88 % 1006,4 hPa 0,0 l/m 21,3 km/h (4 Bft) W-SW 254 0 min 0,000 mm 0,0 UV-I 0 W/m -1,2 C -9,4 C 33,8 km/h (5 Bft) 100,00 %
17.01.2018 19:04 0,6 C 3,3 C 88 % 1006,4 hPa 0,0 l/m 23,9 km/h (4 Bft) W 272 0 min 0,000 mm 0,0 UV-I 0 W/m -1,2 C -10,5 C 35,4 km/h (5 Bft) 98,00 %
17.01.2018 19:06 0,6 C 3,3 C 88 % 1006,5 hPa 0,0 l/m 20,1 km/h (4 Bft) W-SW 244 0 min 0,000 mm 0,0 UV-I 0 W/m -1,2 C -8,9 C 27,4 km/h (4 Bft) 97,87 %
17.01.2018 19:08 0,6 C 3,3 C 88 % 1006,5 hPa 0,0 l/m 18,2 km/h (3 Bft) W 265 0 min 0,000 mm 0,0 UV-I 0 W/m -1,2 C -8,0 C 29,0 km/h (5 Bft) 96,00 %
17.01.2018 19:10 0,6 C 3,3 C 88 % 1006,5 hPa 0,0 l/m 16,2 km/h (3 Bft) W 269 0 min 0,000 mm 0,0 UV-I 0 W/m -1,2 C -6,9 C 24,1 km/h (4 Bft) 100,00 %
17.01.2018 19:12 0,6 C 3,3 C 88 % 1006,5 hPa 0,0 l/m 14,5 km/h (3 Bft) S-SW 209 0 min 0,000 mm 0,0 UV-I 0 W/m -1,2 C -6,0 C 20,9 km/h (4 Bft) 100,00 %
17.01.2018 19:14 0,6 C 3,3 C 88 % 1006,5 hPa 0,0 l/m 19,9 km/h (4 Bft) SW 236 0 min 0,000 mm 0,0 UV-I 0 W/m -1,2 C -8,8 C 27,4 km/h (4 Bft) 98,11 %
17.01.2018 19:16 0,7 C 3,3 C 88 % 1006,5 hPa 0,0 l/m 18,4 km/h (3 Bft) W-SW 255 0 min 0,000 mm 0,0 UV-I 0 W/m -1,1 C -8,0 C 29,0 km/h (5 Bft) 100,00 %
17.01.2018 19:18 0,7 C 3,3 C 88 % 1006,5 hPa 0,0 l/m 17,0 km/h (3 Bft) W 259 0 min 0,000 mm 0,0 UV-I 0 W/m -1,1 C -7,3 C 29,0 km/h (5 Bft) 97,87 %
17.01.2018 19:20 0,7 C 3,3 C 88 % 1006,5 hPa 0,0 l/m 20,8 km/h (4 Bft) SW 219 0 min 0,000 mm 0,0 UV-I 0 W/m -1,1 C -9,1 C 27,4 km/h (4 Bft) 100,00 %
17.01.2018 19:22 0,7 C 3,3 C 89 % 1006,5 hPa 0,0 l/m 20,0 km/h (4 Bft) W-SW 258 0 min 0,000 mm 0,0 UV-I 0 W/m -0,9 C -8,7 C 29,0 km/h (5 Bft) 100,00 %
17.01.2018 19:24 0,7 C 3,3 C 89 % 1006,5 hPa 0,0 l/m 14,5 km/h (3 Bft) W-SW 253 0 min 0,000 mm 0,0 UV-I 0 W/m -0,9 C -5,8 C 19,3 km/h (3 Bft) 100,00 %
17.01.2018 19:26 0,6 C 3,3 C 89 % 1006,5 hPa 0,0 l/m 18,8 km/h (3 Bft) W 265 0 min 0,000 mm 0,0 UV-I 0 W/m -1,0 C -8,3 C 35,4 km/h (5 Bft) 97,62 %
17.01.2018 19:28 0,6 C 3,3 C 89 % 1006,5 hPa 0,0 l/m 20,0 km/h (4 Bft) W-SW 248 0 min 0,000 mm 0,0 UV-I 0 W/m -1,0 C -8,9 C 33,8 km/h (5 Bft) 98,08 %
17.01.2018 19:30 0,6 C 3,3 C 89 % 1006,5 hPa 0,0 l/m 19,3 km/h (3 Bft) W-SW 247 0 min 0,000 mm 0,0 UV-I 0 W/m -1,0 C -8,5 C 35,4 km/h (5 Bft) 99,12 %
17.01.2018 19:35 0,4 C 3,3 C 90 % 1006,6 hPa 0,0 l/m 19,3 km/h (3 Bft) W-SW 247 0 min 0,000 mm 0,0 UV-I 0 W/m -1,0 C -8,8 C 32,2 km/h (5 Bft) 100,00 %
17.01.2018 19:36 0,4 C 3,3 C 90 % 1006,7 hPa 0,0 l/m 13,1 km/h (3 Bft) SW 219 0 min 0,000 mm 0,0 UV-I 0 W/m -1,0 C -5,3 C 14,5 km/h (3 Bft) 100,00 %
17.01.2018 19:38 0,4 C 3,3 C 91 % 1006,7 hPa 0,0 l/m 21,8 km/h (4 Bft) SW 229 0 min 0,000 mm 0,0 UV-I 0 W/m -0,9 C -9,9 C 30,6 km/h (5 Bft) 96,36 %
17.01.2018 19:40 0,3 C 3,3 C 91 % 1006,7 hPa 0,0 l/m 20,9 km/h (4 Bft) W-SW 247 0 min 0,000 mm 0,0 UV-I 0 W/m -1,0 C -9,7 C 33,8 km/h (5 Bft) 99,12 %
17.01.2018 19:44 0,3 C 3,3 C 91 % 1006,8 hPa 0,0 l/m 13,7 km/h (3 Bft) W-SW 241 0 min 0,000 mm 0,0 UV-I 0 W/m -1,0 C -5,8 C 19,3 km/h (3 Bft) 95,83 %
17.01.2018 19:46 0,3 C 3,3 C 91 % 1006,9 hPa 0,0 l/m 19,7 km/h (3 Bft) W 259 0 min 0,000 mm 0,0 UV-I 0 W/m -1,0 C -9,1 C 30,6 km/h (5 Bft) 97,78 %
17.01.2018 19:48 0,3 C 3,3 C 91 % 1006,8 hPa 0,0 l/m 17,1 km/h (3 Bft) W 261 0 min 0,000 mm 0,0 UV-I 0 W/m -1,0 C -7,8 C 24,1 km/h (4 Bft) 98,18 %
17.01.2018 19:50 0,3 C 3,3 C 91 % 1006,8 hPa 0,0 l/m 16,4 km/h (3 Bft) W 273 0 min 0,000 mm 0,0 UV-I 0 W/m -1,0 C -7,4 C 24,1 km/h (4 Bft) 97,22 %
17.01.2018 19:52 0,4 C 3,3 C 91 % 1006,9 hPa 0,0 l/m 16,3 km/h (3 Bft) W-SW 240 0 min 0,000 mm 0,0 UV-I 0 W/m -0,9 C -7,2 C 27,4 km/h (4 Bft) 98,00 %
17.01.2018 19:54 0,4 C 3,3 C 91 % 1006,9 hPa 0,0 l/m 22,3 km/h (4 Bft) S-SW 196 0 min 0,000 mm 0,0 UV-I 0 W/m -0,9 C -10,1 C 38,6 km/h (5 Bft) 96,00 %
17.01.2018 19:56 0,6 C 3,3 C 90 % 1006,8 hPa 0,0 l/m 22,1 km/h (4 Bft) W-SW 252 0 min 0,000 mm 0,0 UV-I 0 W/m -0,8 C -9,8 C 37,0 km/h (5 Bft) 97,73 %
17.01.2018 19:58 0,7 C 3,3 C 89 % 1006,9 hPa 0,0 l/m 18,5 km/h (3 Bft) W-SW 255 0 min 0,000 mm 0,0 UV-I 0 W/m -0,9 C -8,0 C 29,0 km/h (5 Bft) 90,57 %
17.01.2018 20:00 0,8 C 3,3 C 89 % 1006,9 hPa 0,0 l/m 20,0 km/h (4 Bft) W-SW 246 0 min 0,000 mm 0,0 UV-I 0 W/m -0,8 C -8,6 C 40,2 km/h (6 Bft) 92,11 %
17.01.2018 20:02 0,9 C 3,3 C 88 % 1006,9 hPa 0,0 l/m 21,7 km/h (4 Bft) SW 235 0 min 0,025 mm 0,0 UV-I 0 W/m -0,9 C -9,2 C 41,8 km/h (6 Bft) 96,00 %
17.01.2018 20:04 1,0 C 3,3 C 87 % 1007,0 hPa 0,0 l/m 17,2 km/h (3 Bft) W-SW 257 0 min 0,000 mm 0,0 UV-I 0 W/m -0,9 C -7,0 C 25,7 km/h (4 Bft) 97,73 %
17.01.2018 20:06 1,1 C 3,3 C 86 % 1007,0 hPa 0,0 l/m 23,1 km/h (4 Bft) W 273 0 min 0,000 mm 0,0 UV-I 0 W/m -1,0 C -9,5 C 40,2 km/h (6 Bft) 98,21 %
17.01.2018 20:08 1,2 C 3,3 C 85 % 1007,0 hPa 0,0 l/m 20,6 km/h (4 Bft) NW 324 0 min 0,000 mm 0,0 UV-I 0 W/m -1,0 C -8,3 C 35,4 km/h (5 Bft) 97,37 %
17.01.2018 20:10 1,2 C 3,3 C 85 % 1006,9 hPa 0,0 l/m 27,2 km/h (4 Bft) SW 227 0 min 0,000 mm 0,0 UV-I 0 W/m -1,0 C -10,8 C 51,5 km/h (7 Bft) 98,00 %
17.01.2018 20:12 1,3 C 3,3 C 85 % 1007,1 hPa 0,0 l/m 21,9 km/h (4 Bft) W 265 0 min 0,000 mm 0,0 UV-I 0 W/m -0,9 C -8,8 C 30,6 km/h (5 Bft) 97,62 %
17.01.2018 20:14 1,3 C 3,3 C 85 % 1007,2 hPa 0,0 l/m 28,5 km/h (4 Bft) W 259 0 min 0,000 mm 0,0 UV-I 0 W/m -0,9 C -11,1 C 46,7 km/h (6 Bft) 96,15 %
17.01.2018 20:16 1,4 C 3,3 C 85 % 1007,2 hPa 0,0 l/m 24,5 km/h (4 Bft) W-SW 255 0 min 0,000 mm 0,0 UV-I 0 W/m -0,8 C -9,6 C 43,5 km/h (6 Bft) 97,44 %
17.01.2018 20:18 1,4 C 3,3 C 84 % 1007,2 hPa 0,0 l/m 23,7 km/h (4 Bft) W-NW 296 0 min 0,000 mm 0,0 UV-I 0 W/m -1,0 C -9,3 C 41,8 km/h (6 Bft) 98,28 %
17.01.2018 20:20 1,4 C 3,3 C 84 % 1007,1 hPa 0,0 l/m 24,1 km/h (4 Bft) W-SW 250 0 min 0,000 mm 0,0 UV-I 0 W/m -1,0 C -9,5 C 38,6 km/h (5 Bft) 95,83 %
17.01.2018 20:22 1,4 C 3,3 C 84 % 1007,3 hPa 0,0 l/m 21,0 km/h (4 Bft) W-SW 257 0 min 0,000 mm 0,0 UV-I 0 W/m -1,0 C -8,3 C 29,0 km/h (5 Bft) 100,00 %
17.01.2018 20:24 1,3 C 3,3 C 84 % 1007,3 hPa 0,0 l/m 24,8 km/h (4 Bft) W-SW 250 0 min 0,000 mm 0,0 UV-I 0 W/m -1,1 C -9,9 C 35,4 km/h (5 Bft) 96,43 %
17.01.2018 20:26 1,4 C 3,3 C 84 % 1007,4 hPa 0,0 l/m 29,2 km/h (5 Bft) W-SW 255 0 min 0,000 mm 0,0 UV-I 0 W/m -1,0 C -11,2 C 41,8 km/h (6 Bft) 97,56 %
17.01.2018 20:28 1,4 C 3,3 C 83 % 1007,4 hPa 0,0 l/m 26,1 km/h (4 Bft) W 265 0 min 0,000 mm 0,0 UV-I 0 W/m -1,2 C -10,2 C 43,5 km/h (6 Bft) 98,00 %
17.01.2018 20:30 1,4 C 3,3 C 83 % 1007,4 hPa 0,0 l/m 20,1 km/h (4 Bft) W-SW 247 0 min 0,000 mm 0,0 UV-I 0 W/m -1,2 C -7,9 C 29,0 km/h (5 Bft) 94,00 %
17.01.2018 20:32 1,5 C 3,3 C 83 % 1007,5 hPa 0,0 l/m 24,5 km/h (4 Bft) W-SW 255 0 min 0,000 mm 0,0 UV-I 0 W/m -1,1 C -9,5 C 38,6 km/h (5 Bft) 97,73 %
17.01.2018 20:34 1,6 C 3,3 C 83 % 1007,6 hPa 0,0 l/m 22,8 km/h (4 Bft) W-SW 250 0 min 0,000 mm 0,0 UV-I 0 W/m -1,0 C -8,7 C 46,7 km/h (6 Bft) 97,87 %
17.01.2018 20:36 1,6 C 3,3 C 83 % 1007,6 hPa 0,0 l/m 26,1 km/h (4 Bft) W 269 0 min 0,000 mm 0,0 UV-I 0 W/m -1,0 C -9,9 C 38,6 km/h (5 Bft) 97,87 %
17.01.2018 20:38 1,6 C 3,3 C 82 % 1007,5 hPa 0,0 l/m 24,9 km/h (4 Bft) W-SW 245 0 min 0,000 mm 0,0 UV-I 0 W/m -1,1 C -9,5 C 53,1 km/h (7 Bft) 97,37 %
17.01.2018 20:40 1,7 C 3,3 C 82 % 1007,6 hPa 0,0 l/m 24,3 km/h (4 Bft) SW 227 0 min 0,000 mm 0,0 UV-I 0 W/m -1,0 C -9,2 C 33,8 km/h (5 Bft) 97,56 %
17.01.2018 20:42 1,7 C 3,3 C 82 % 1007,6 hPa 0,0 l/m 30,8 km/h (5 Bft) W 261 0 min 0,000 mm 0,0 UV-I 0 W/m -1,0 C -11,2 C 43,5 km/h (6 Bft) 98,21 %
17.01.2018 20:44 1,7 C 3,3 C 81 % 1007,6 hPa 0,0 l/m 30,5 km/h (5 Bft) W-SW 252 0 min 0,000 mm 0,0 UV-I 0 W/m -1,2 C -11,2 C 46,7 km/h (6 Bft) 94,34 %
17.01.2018 20:46 1,7 C 3,3 C 81 % 1007,7 hPa 0,0 l/m 31,1 km/h (5 Bft) W-SW 242 0 min 0,000 mm 0,0 UV-I 0 W/m -1,2 C -11,3 C 56,3 km/h (7 Bft) 94,74 %
17.01.2018 20:48 1,8 C 3,3 C 81 % 1007,7 hPa 0,0 l/m 29,1 km/h (5 Bft) W-SW 245 0 min 0,000 mm 0,0 UV-I 0 W/m -1,1 C -10,6 C 57,9 km/h (7 Bft) 96,00 %
17.01.2018 20:50 1,8 C 3,3 C 81 % 1007,8 hPa 0,0 l/m 30,3 km/h (5 Bft) SW 232 0 min 0,000 mm 0,0 UV-I 0 W/m -1,1 C -11,0 C 46,7 km/h (6 Bft) 97,87 %
17.01.2018 20:52 1,8 C 3,3 C 81 % 1007,8 hPa 0,0 l/m 30,7 km/h (5 Bft) W-SW 241 0 min 0,000 mm 0,0 UV-I 0 W/m -1,1 C -11,1 C 43,5 km/h (6 Bft) 96,23 %
17.01.2018 20:54 1,8 C 3,3 C 81 % 1008,0 hPa 0,0 l/m 30,7 km/h (5 Bft) SW 223 0 min 0,000 mm 0,0 UV-I 0 W/m -1,1 C -11,1 C 45,1 km/h (6 Bft) 95,24 %
17.01.2018 20:56 1,9 C 3,3 C 81 % 1007,9 hPa 0,0 l/m 30,0 km/h (5 Bft) W-SW 242 0 min 0,000 mm 0,0 UV-I 0 W/m -1,0 C -10,7 C 54,7 km/h (7 Bft) 98,08 %
17.01.2018 20:58 1,8 C 3,3 C 81 % 1008,0 hPa 0,0 l/m 24,5 km/h (4 Bft) W-SW 242 0 min 0,000 mm 0,0 UV-I 0 W/m -1,1 C -9,1 C 35,4 km/h (5 Bft) 97,44 %
17.01.2018 21:00 1,8 C 3,3 C 82 % 1008,1 hPa 0,0 l/m 32,6 km/h (5 Bft) W-SW 238 0 min 0,026 mm 0,0 UV-I 0 W/m -0,9 C -11,6 C 51,5 km/h (7 Bft) 98,00 %
17.01.2018 21:02 1,8 C 3,3 C 82 % 1008,1 hPa 0,0 l/m 34,1 km/h (5 Bft) W 260 0 min 0,000 mm 0,0 UV-I 0 W/m -0,9 C -12,0 C 51,5 km/h (7 Bft) 92,00 %
17.01.2018 21:05 1,6 C 3,3 C 83 % 1008,1 hPa 0,0 l/m 27,4 km/h (4 Bft) W-SW 247 0 min 0,000 mm 0,0 UV-I 0 W/m -1,0 C -10,4 C 51,5 km/h (7 Bft) 100,00 %
17.01.2018 21:10 1,3 C 3,3 C 86 % 1008,1 hPa 0,0 l/m 30,6 km/h (5 Bft) W-SW 247 0 min 0,000 mm 0,0 UV-I 0 W/m -0,8 C -11,8 C 56,3 km/h (7 Bft) 100,00 %
17.01.2018 21:12 1,2 C 3,3 C 87 % 1008,1 hPa 0,0 l/m 27,1 km/h (4 Bft) W 265 0 min 0,000 mm 0,0 UV-I 0 W/m -0,7 C -10,8 C 35,4 km/h (5 Bft) 94,74 %
17.01.2018 21:14 1,2 C 3,3 C 87 % 1008,1 hPa 0,0 l/m 21,0 km/h (4 Bft) W-SW 248 0 min 0,000 mm 0,0 UV-I 0 W/m -0,7 C -8,5 C 30,6 km/h (5 Bft) 97,87 %
17.01.2018 21:16 1,2 C 3,3 C 87 % 1008,1 hPa 0,0 l/m 22,0 km/h (4 Bft) W-SW 250 0 min 0,000 mm 0,0 UV-I 0 W/m -0,7 C -8,9 C 35,4 km/h (5 Bft) 97,73 %
17.01.2018 21:18 1,2 C 3,3 C 87 % 1008,1 hPa 0,0 l/m 22,9 km/h (4 Bft) W-NW 282 0 min 0,000 mm 0,0 UV-I 0 W/m -0,7 C -9,3 C 32,2 km/h (5 Bft) 95,74 %
17.01.2018 21:20 1,2 C 3,3 C 87 % 1008,0 hPa 0,0 l/m 21,3 km/h (4 Bft) W 263 0 min 0,000 mm 0,0 UV-I 0 W/m -0,7 C -8,6 C 35,4 km/h (5 Bft) 98,21 %
17.01.2018 21:22 1,3 C 3,3 C 86 % 1008,1 hPa 0,0 l/m 26,0 km/h (4 Bft) W-SW 245 0 min 0,000 mm 0,0 UV-I 0 W/m -0,8 C -10,3 C 35,4 km/h (5 Bft) 95,12 %
17.01.2018 21:24 1,4 C 3,3 C 85 % 1008,1 hPa 0,0 l/m 24,7 km/h (4 Bft) W 263 0 min 0,000 mm 0,0 UV-I 0 W/m -0,8 C -9,7 C 35,4 km/h (5 Bft) 96,43 %
17.01.2018 21:26 1,4 C 3,3 C 85 % 1008,1 hPa 0,0 l/m 32,8 km/h (5 Bft) SW 234 0 min 0,000 mm 0,0 UV-I 0 W/m -0,8 C -12,2 C 45,1 km/h (6 Bft) 97,37 %
17.01.2018 21:28 1,5 C 3,3 C 84 % 1008,1 hPa 0,0 l/m 30,0 km/h (5 Bft) W 275 0 min 0,000 mm 0,0 UV-I 0 W/m -0,9 C -11,3 C 57,9 km/h (7 Bft) 97,87 %
17.01.2018 21:30 1,5 C 3,3 C 84 % 1008,0 hPa 0,0 l/m 24,5 km/h (4 Bft) W-SW 256 0 min 0,000 mm 0,0 UV-I 0 W/m -0,9 C -9,5 C 38,6 km/h (5 Bft) 98,00 %
17.01.2018 21:32 1,6 C 3,3 C 83 % 1008,0 hPa 0,0 l/m 34,9 km/h (5 Bft) W 270 0 min 0,000 mm 0,0 UV-I 0 W/m -1,0 C -12,4 C 53,1 km/h (7 Bft) 100,00 %
17.01.2018 21:34 1,7 C 3,3 C 83 % 1008,2 hPa 0,0 l/m 28,8 km/h (4 Bft) W-SW 248 0 min 0,000 mm 0,0 UV-I 0 W/m -0,9 C -10,7 C 38,6 km/h (5 Bft) 98,00 %
17.01.2018 21:36 1,7 C 3,3 C 82 % 1008,1 hPa 0,0 l/m 34,4 km/h (5 Bft) W 274 0 min 0,000 mm 0,0 UV-I 0 W/m -1,0 C -12,2 C 46,7 km/h (6 Bft) 97,22 %
17.01.2018 21:38 1,8 C 3,3 C 82 % 1008,2 hPa 0,0 l/m 29,6 km/h (5 Bft) W 259 0 min 0,000 mm 0,0 UV-I 0 W/m -0,9 C -10,8 C 54,7 km/h (7 Bft) 100,00 %
17.01.2018 21:40 1,8 C 3,3 C 82 % 1008,2 hPa 0,0 l/m 24,7 km/h (4 Bft) W-SW 255 0 min 0,000 mm 0,0 UV-I 0 W/m -0,9 C -9,2 C 43,5 km/h (6 Bft) 100,00 %
17.01.2018 21:43 1,8 C 3,3 C 82 % 1008,3 hPa 0,0 l/m 28,0 km/h (4 Bft) W-SW 245 0 min 0,000 mm 0,0 UV-I 0 W/m -0,9 C -10,3 C 51,5 km/h (7 Bft) 95,89 %
17.01.2018 21:44 1,8 C 3,3 C 82 % 1008,3 hPa 0,0 l/m 28,7 km/h (4 Bft) W-SW 257 0 min 0,000 mm 0,0 UV-I 0 W/m -0,9 C -10,5 C 37,0 km/h (5 Bft) 95,83 %
17.01.2018 21:46 1,7 C 3,3 C 82 % 1008,3 hPa 0,0 l/m 26,0 km/h (4 Bft) W-SW 250 0 min 0,000 mm 0,0 UV-I 0 W/m -1,0 C -9,8 C 49,9 km/h (6 Bft) 98,11 %
17.01.2018 21:48 1,7 C 3,3 C 82 % 1008,4 hPa 0,0 l/m 23,4 km/h (4 Bft) W-SW 248 0 min 0,000 mm 0,0 UV-I 0 W/m -1,0 C -8,8 C 33,8 km/h (5 Bft) 97,87 %
17.01.2018 21:50 1,7 C 3,3 C 82 % 1008,4 hPa 0,0 l/m 26,2 km/h (4 Bft) W 274 0 min 0,000 mm 0,0 UV-I 0 W/m -1,0 C -9,8 C 38,6 km/h (5 Bft) 97,14 %
17.01.2018 21:52 1,6 C 3,3 C 82 % 1008,5 hPa 0,0 l/m 26,8 km/h (4 Bft) SW 230 0 min 0,000 mm 0,0 UV-I 0 W/m -1,1 C -10,2 C 37,0 km/h (5 Bft) 96,43 %
17.01.2018 21:54 1,6 C 3,3 C 82 % 1008,4 hPa 0,0 l/m 25,9 km/h (4 Bft) SW 234 0 min 0,000 mm 0,0 UV-I 0 W/m -1,1 C -9,9 C 43,5 km/h (6 Bft) 95,12 %
17.01.2018 21:56 1,7 C 3,3 C 82 % 1008,5 hPa 0,0 l/m 28,5 km/h (4 Bft) W-SW 258 0 min 0,000 mm 0,0 UV-I 0 W/m -1,0 C -10,6 C 43,5 km/h (6 Bft) 96,23 %
17.01.2018 21:58 1,7 C 3,3 C 82 % 1008,5 hPa 0,0 l/m 38,0 km/h (5 Bft) S 189 0 min 0,000 mm 0,0 UV-I 0 W/m -1,0 C -13,0 C 64,4 km/h (8 Bft) 100,00 %
17.01.2018 22:00 1,8 C 3,3 C 81 % 1008,5 hPa 0,0 l/m 29,7 km/h (5 Bft) W 265 0 min 0,025 mm 0,0 UV-I 0 W/m -1,1 C -10,8 C 51,5 km/h (7 Bft) 96,00 %
17.01.2018 22:02 1,8 C 3,3 C 81 % 1008,6 hPa 0,0 l/m 28,2 km/h (4 Bft) W 266 0 min 0,000 mm 0,0 UV-I 0 W/m -1,1 C -10,3 C 43,5 km/h (6 Bft) 95,83 %
17.01.2018 22:04 1,8 C 3,3 C 82 % 1008,5 hPa 0,0 l/m 24,5 km/h (4 Bft) W 267 0 min 0,000 mm 0,0 UV-I 0 W/m -0,9 C -9,1 C 41,8 km/h (6 Bft) 96,00 %
17.01.2018 22:06 1,8 C 3,3 C 82 % 1008,6 hPa 0,0 l/m 19,8 km/h (3 Bft) SW 215 0 min 0,000 mm 0,0 UV-I 0 W/m -0,9 C -7,2 C 29,0 km/h (5 Bft) 98,00 %
17.01.2018 22:08 1,8 C 3,3 C 82 % 1008,6 hPa 0,0 l/m 24,2 km/h (4 Bft) SW 233 0 min 0,000 mm 0,0 UV-I 0 W/m -0,9 C -9,0 C 40,2 km/h (6 Bft) 97,37 %
17.01.2018 22:10 1,8 C 3,3 C 81 % 1008,6 hPa 0,0 l/m 25,3 km/h (4 Bft) W 267 0 min 0,000 mm 0,0 UV-I 0 W/m -1,1 C -9,4 C 41,8 km/h (6 Bft) 98,21 %
17.01.2018 22:13 1,8 C 3,3 C 81 % 1008,7 hPa 0,0 l/m 22,0 km/h (4 Bft) W 272 0 min 0,000 mm 0,0 UV-I 0 W/m -1,1 C -8,1 C 35,4 km/h (5 Bft) 97,30 %
17.01.2018 22:14 1,8 C 3,3 C 81 % 1008,7 hPa 0,0 l/m 27,2 km/h (4 Bft) W-SW 246 0 min 0,000 mm 0,0 UV-I 0 W/m -1,1 C -10,0 C 41,8 km/h (6 Bft) 100,00 %
17.01.2018 22:16 1,8 C 3,3 C 81 % 1008,6 hPa 0,0 l/m 21,2 km/h (4 Bft) W-SW 257 0 min 0,000 mm 0,0 UV-I 0 W/m -1,1 C -7,8 C 33,8 km/h (5 Bft) 93,62 %
17.01.2018 22:18 1,8 C 3,3 C 81 % 1008,7 hPa 0,0 l/m 19,0 km/h (3 Bft) W 273 0 min 0,000 mm 0,0 UV-I 0 W/m -1,1 C -6,9 C 29,0 km/h (5 Bft) 97,73 %
17.01.2018 22:20 1,8 C 3,3 C 81 % 1008,7 hPa 0,0 l/m 19,7 km/h (3 Bft) W 268 0 min 0,000 mm 0,0 UV-I 0 W/m -1,1 C -7,2 C 32,2 km/h (5 Bft) 100,00 %
17.01.2018 22:22 1,8 C 3,3 C 81 % 1008,8 hPa 0,0 l/m 27,9 km/h (4 Bft) W 259 0 min 0,000 mm 0,0 UV-I 0 W/m -1,1 C -10,2 C 37,0 km/h (5 Bft) 95,45 %
17.01.2018 22:24 1,9 C 3,3 C 80 % 1008,8 hPa 0,0 l/m 28,5 km/h (4 Bft) W 268 0 min 0,000 mm 0,0 UV-I 0 W/m -1,2 C -10,3 C 43,5 km/h (6 Bft) 100,00 %
17.01.2018 22:26 1,9 C 3,3 C 80 % 1008,7 hPa 0,0 l/m 27,6 km/h (4 Bft) W-SW 244 0 min 0,000 mm 0,0 UV-I 0 W/m -1,2 C -10,0 C 43,5 km/h (6 Bft) 98,00 %
17.01.2018 22:28 1,9 C 3,3 C 80 % 1008,9 hPa 0,0 l/m 22,3 km/h (4 Bft) W 272 0 min 0,000 mm 0,0 UV-I 0 W/m -1,2 C -8,1 C 33,8 km/h (5 Bft) 94,29 %
17.01.2018 22:30 1,9 C 3,3 C 80 % 1008,8 hPa 0,0 l/m 29,3 km/h (5 Bft) W 268 0 min 0,000 mm 0,0 UV-I 0 W/m -1,2 C -10,5 C 48,3 km/h (6 Bft) 100,00 %
17.01.2018 22:32 1,9 C 3,3 C 80 % 1008,8 hPa 0,0 l/m 26,7 km/h (4 Bft) W 265 0 min 0,000 mm 0,0 UV-I 0 W/m -1,2 C -9,7 C 46,7 km/h (6 Bft) 100,00 %
17.01.2018 22:34 2,0 C 3,3 C 79 % 1008,9 hPa 0,0 l/m 29,4 km/h (5 Bft) W 269 0 min 0,000 mm 0,0 UV-I 0 W/m -1,2 C -10,4 C 49,9 km/h (6 Bft) 97,56 %
17.01.2018 22:36 2,0 C 3,3 C 79 % 1008,8 hPa 0,0 l/m 26,8 km/h (4 Bft) W-SW 244 0 min 0,000 mm 0,0 UV-I 0 W/m -1,2 C -9,6 C 40,2 km/h (6 Bft) 95,83 %
17.01.2018 22:38 2,0 C 3,3 C 79 % 1008,8 hPa 0,0 l/m 23,2 km/h (4 Bft) W-SW 250 0 min 0,000 mm 0,0 UV-I 0 W/m -1,2 C -8,4 C 41,8 km/h (6 Bft) 100,00 %
17.01.2018 22:40 2,1 C 3,3 C 79 % 1008,9 hPa 0,0 l/m 29,9 km/h (5 Bft) W-SW 243 0 min 0,000 mm 0,0 UV-I 0 W/m -1,2 C -10,4 C 45,1 km/h (6 Bft) 100,00 %
17.01.2018 22:42 2,1 C 3,3 C 78 % 1008,9 hPa 0,0 l/m 29,5 km/h (5 Bft) W 268 0 min 0,000 mm 0,0 UV-I 0 W/m -1,3 C -10,3 C 45,1 km/h (6 Bft) 98,00 %
17.01.2018 22:44 2,1 C 3,3 C 79 % 1009,1 hPa 0,0 l/m 19,5 km/h (3 Bft) W 262 0 min 0,000 mm 0,0 UV-I 0 W/m -1,2 C -6,7 C 30,6 km/h (5 Bft) 96,30 %
17.01.2018 22:46 2,1 C 3,3 C 79 % 1009,1 hPa 0,0 l/m 24,1 km/h (4 Bft) W 275 0 min 0,000 mm 0,0 UV-I 0 W/m -1,2 C -8,6 C 37,0 km/h (5 Bft) 100,00 %
17.01.2018 22:48 2,1 C 3,3 C 79 % 1009,2 hPa 0,0 l/m 26,6 km/h (4 Bft) W-SW 256 0 min 0,000 mm 0,0 UV-I 0 W/m -1,2 C -9,4 C 41,8 km/h (6 Bft) 100,00 %
17.01.2018 22:50 2,0 C 3,3 C 78 % 1009,3 hPa 0,0 l/m 24,7 km/h (4 Bft) W-SW 237 0 min 0,000 mm 0,0 UV-I 0 W/m -1,4 C -8,9 C 35,4 km/h (5 Bft) 100,00 %
17.01.2018 22:52 2,0 C 3,3 C 79 % 1009,3 hPa 0,0 l/m 22,6 km/h (4 Bft) W-SW 258 0 min 0,000 mm 0,0 UV-I 0 W/m -1,2 C -8,1 C 43,5 km/h (6 Bft) 100,00 %
17.01.2018 22:54 2,0 C 3,3 C 78 % 1009,4 hPa 0,0 l/m 29,5 km/h (5 Bft) W 262 0 min 0,000 mm 0,0 UV-I 0 W/m -1,4 C -10,4 C 48,3 km/h (6 Bft) 100,00 %
17.01.2018 22:56 2,1 C 3,3 C 78 % 1009,4 hPa 0,0 l/m 29,4 km/h (5 Bft) SW 234 0 min 0,000 mm 0,0 UV-I 0 W/m -1,3 C -10,3 C 49,9 km/h (6 Bft) 97,87 %
17.01.2018 22:58 2,1 C 3,3 C 79 % 1009,5 hPa 0,0 l/m 18,4 km/h (3 Bft) W-NW 282 0 min 0,000 mm 0,0 UV-I 0 W/m -1,2 C -6,2 C 29,0 km/h (5 Bft) 100,00 %
17.01.2018 23:00 2,0 C 3,3 C 79 % 1009,6 hPa 0,0 l/m 23,6 km/h (4 Bft) W 261 0 min 0,051 mm 0,0 UV-I 0 W/m -1,2 C -8,5 C 40,2 km/h (6 Bft) 100,00 %
17.01.2018 23:02 2,0 C 3,3 C 79 % 1009,5 hPa 0,0 l/m 20,9 km/h (4 Bft) W-NW 288 0 min 0,000 mm 0,0 UV-I 0 W/m -1,2 C -7,4 C 32,2 km/h (5 Bft) 100,00 %
17.01.2018 23:04 2,1 C 3,3 C 79 % 1009,6 hPa 0,0 l/m 33,0 km/h (5 Bft) W 265 0 min 0,000 mm 0,0 UV-I 0 W/m -1,2 C -11,3 C 57,9 km/h (7 Bft) 100,00 %
17.01.2018 23:06 2,1 C 3,3 C 79 % 1009,7 hPa 0,0 l/m 30,7 km/h (5 Bft) W 260 0 min 0,000 mm 0,0 UV-I 0 W/m -1,2 C -10,7 C 46,7 km/h (6 Bft) 97,56 %
17.01.2018 23:08 2,1 C 3,3 C 78 % 1009,9 hPa 0,0 l/m 32,0 km/h (5 Bft) W-SW 254 0 min 0,000 mm 0,0 UV-I 0 W/m -1,3 C -11,0 C 46,7 km/h (6 Bft) 100,00 %
17.01.2018 23:10 2,1 C 3,3 C 78 % 1009,8 hPa 0,0 l/m 25,0 km/h (4 Bft) W-SW 241 0 min 0,000 mm 0,0 UV-I 0 W/m -1,3 C -8,9 C 43,5 km/h (6 Bft) 100,00 %
17.01.2018 23:12 2,1 C 3,3 C 79 % 1009,8 hPa 0,0 l/m 23,8 km/h (4 Bft) W-NW 297 0 min 0,000 mm 0,0 UV-I 0 W/m -1,2 C -8,4 C 30,6 km/h (5 Bft) 100,00 %
17.01.2018 23:14 2,1 C 3,3 C 79 % 1009,9 hPa 0,0 l/m 21,8 km/h (4 Bft) SW 232 0 min 0,000 mm 0,0 UV-I 0 W/m -1,2 C -7,7 C 45,1 km/h (6 Bft) 100,00 %
17.01.2018 23:16 2,0 C 3,3 C 79 % 1009,9 hPa 0,0 l/m 23,4 km/h (4 Bft) W-SW 251 0 min 0,000 mm 0,0 UV-I 0 W/m -1,2 C -8,4 C 43,5 km/h (6 Bft) 98,11 %
17.01.2018 23:18 1,9 C 3,3 C 79 % 1009,8 hPa 0,0 l/m 20,2 km/h (4 Bft) W 262 0 min 0,000 mm 0,0 UV-I 0 W/m -1,3 C -7,3 C 30,6 km/h (5 Bft) 98,00 %
17.01.2018 23:20 1,9 C 3,3 C 78 % 1009,8 hPa 0,0 l/m 26,2 km/h (4 Bft) W-SW 249 0 min 0,000 mm 0,0 UV-I 0 W/m -1,5 C -9,6 C 40,2 km/h (6 Bft) 100,00 %
17.01.2018 23:22 1,9 C 3,3 C 78 % 1009,8 hPa 0,0 l/m 40,0 km/h (6 Bft) SW 234 0 min 0,000 mm 0,0 UV-I 0 W/m -1,5 C -13,1 C 59,5 km/h (7 Bft) 100,00 %
17.01.2018 23:24 2,0 C 3,3 C 78 % 1010,0 hPa 0,0 l/m 28,0 km/h (4 Bft) SW 235 0 min 0,000 mm 0,0 UV-I 0 W/m -1,4 C -10,0 C 41,8 km/h (6 Bft) 100,00 %
17.01.2018 23:26 2,1 C 3,3 C 78 % 1010,1 hPa 0,0 l/m 32,8 km/h (5 Bft) W-SW 258 0 min 0,000 mm 0,0 UV-I 0 W/m -1,3 C -11,2 C 66,0 km/h (8 Bft) 100,00 %
17.01.2018 23:28 2,0 C 3,3 C 78 % 1010,1 hPa 0,0 l/m 31,6 km/h (5 Bft) W-SW 242 0 min 0,000 mm 0,0 UV-I 0 W/m -1,4 C -11,0 C 46,7 km/h (6 Bft) 100,00 %
17.01.2018 23:30 1,9 C 3,3 C 78 % 1010,0 hPa 0,0 l/m 30,8 km/h (5 Bft) W-SW 248 0 min 0,000 mm 0,0 UV-I 0 W/m -1,5 C -11,0 C 46,7 km/h (6 Bft) 100,00 %
17.01.2018 23:32 1,9 C 3,3 C 79 % 1010,2 hPa 0,0 l/m 25,9 km/h (4 Bft) W 278 0 min 0,000 mm 0,0 UV-I 0 W/m -1,3 C -9,5 C 41,8 km/h (6 Bft) 100,00 %
17.01.2018 23:34 1,8 C 3,3 C 79 % 1010,3 hPa 0,0 l/m 24,4 km/h (4 Bft) W-SW 257 0 min 0,000 mm 0,0 UV-I 0 W/m -1,4 C -9,1 C 38,6 km/h (5 Bft) 100,00 %
17.01.2018 23:36 1,8 C 3,3 C 79 % 1010,4 hPa 0,0 l/m 20,6 km/h (4 Bft) W 259 0 min 0,000 mm 0,0 UV-I 0 W/m -1,4 C -7,6 C 30,6 km/h (5 Bft) 96,00 %
17.01.2018 23:38 1,7 C 3,3 C 80 % 1010,4 hPa 0,0 l/m 21,5 km/h (4 Bft) W-SW 256 0 min 0,000 mm 0,0 UV-I 0 W/m -1,4 C -8,1 C 32,2 km/h (5 Bft) 100,00 %
17.01.2018 23:40 1,7 C 3,3 C 80 % 1010,3 hPa 0,0 l/m 23,9 km/h (4 Bft) W 271 0 min 0,000 mm 0,0 UV-I 0 W/m -1,4 C -9,0 C 37,0 km/h (5 Bft) 100,00 %
17.01.2018 23:42 1,6 C 3,3 C 81 % 1010,4 hPa 0,0 l/m 22,3 km/h (4 Bft) W 261 0 min 0,000 mm 0,0 UV-I 0 W/m -1,3 C -8,5 C 35,4 km/h (5 Bft) 100,00 %
17.01.2018 23:44 1,5 C 3,3 C 82 % 1010,5 hPa 0,0 l/m 25,3 km/h (4 Bft) W 269 0 min 0,000 mm 0,0 UV-I 0 W/m -1,2 C -9,8 C 43,5 km/h (6 Bft) 96,23 %
17.01.2018 23:46 1,4 C 3,3 C 83 % 1010,6 hPa 0,0 l/m 20,2 km/h (4 Bft) W-SW 237 0 min 0,000 mm 0,0 UV-I 0 W/m -1,2 C -7,9 C 29,0 km/h (5 Bft) 100,00 %
17.01.2018 23:48 1,4 C 3,3 C 83 % 1010,5 hPa 0,0 l/m 30,2 km/h (5 Bft) SW 223 0 min 0,000 mm 0,0 UV-I 0 W/m -1,2 C -11,5 C 41,8 km/h (6 Bft) 98,11 %
17.01.2018 23:50 1,3 C 3,3 C 83 % 1010,5 hPa 0,0 l/m 21,3 km/h (4 Bft) W-SW 245 0 min 0,000 mm 0,0 UV-I 0 W/m -1,3 C -8,5 C 38,6 km/h (5 Bft) 96,00 %
17.01.2018 23:52 1,3 C 3,3 C 84 % 1010,5 hPa 0,0 l/m 21,4 km/h (4 Bft) W-SW 252 0 min 0,000 mm 0,0 UV-I 0 W/m -1,1 C -8,6 C 32,2 km/h (5 Bft) 97,87 %
17.01.2018 23:54 1,3 C 3,3 C 84 % 1010,7 hPa 0,0 l/m 22,6 km/h (4 Bft) W-SW 239 0 min 0,000 mm 0,0 UV-I 0 W/m -1,1 C -9,1 C 29,0 km/h (5 Bft) 100,00 %
17.01.2018 23:56 1,3 C 3,3 C 83 % 1010,6 hPa 0,0 l/m 26,5 km/h (4 Bft) W-NW 290 0 min 0,000 mm 0,0 UV-I 0 W/m -1,3 C -10,5 C 45,1 km/h (6 Bft) 98,53 %
17.01.2018 23:58 1,3 C 3,3 C 83 % 1010,6 hPa 0,0 l/m 22,3 km/h (4 Bft) W 278 0 min 0,000 mm 0,0 UV-I 0 W/m -1,3 C -8,9 C 32,2 km/h (5 Bft) 100,00 %
_ Min-Zeit 17:16 00:00 22:42 06:28 - 07:24 - - - - - - 18:36 16:58 03:55 04:05
Minimum _ -0,4 C 3,3 C 78 % 996,6 hPa - 2,7 km/h (1 Bft) - - - - - - -1,6 C -14,9 C 4,8 km/h (1 Bft) 65,79 %
_ Max-Zeit 09:42 00:00 02:10 23:54 00:15 23:22 - - 09:28 13:00 12:20 09:40 09:40 07:18 23:26 00:15
Maximum _ 3,2 C 3,3 C 97 % 1010,7 hPa 0,4 l/m 40,0 km/h
SW (6 Bft)
- - 2 min 0,076 mm 0,5 UV-I 270 W/m 1,8 C 2,0 C 66,0 km/h
W-SW (8 Bft)
100,00 %
Durchschnitt _ 1,4 C 3,3 C 90 % 1002,1 hPa #16,6 l/m 17,7 km/h (3 Bft) W-SW - #54 min. #0,508 mm 0,4 UV-I 71 W/m -0,0 C -6,1 C 28,3 km/h (4 Bft) 97,83 %